| time (UTC) | temp F | wind direction | speed MPH | gust MPH | rain 1hr in | rain 24hr in | rain mn in | humidity % | barometer mb |
| 20260903001821 | 87 | 208 | 3.0 | 8.0 | 0.00 | 0.00 | 0.00 | 61 | 1015.6 |
| 20260903001721 | 87 | 191 | 5.0 | 8.0 | 0.00 | 0.00 | 0.00 | 61 | 1015.6 |
| 20260903001621 | 87 | 174 | 4.0 | 6.0 | 0.00 | 0.00 | 0.00 | 61 | 1015.6 |
| 20260903001521 | 87 | 188 | 4.0 | 6.0 | 0.00 | 0.00 | 0.00 | 61 | 1015.6 |
| 20260903001421 | 87 | 201 | 3.0 | 6.0 | 0.00 | 0.00 | 0.00 | 61 | 1015.6 |
| 20260903001321 | 87 | 191 | 3.0 | 7.0 | 0.00 | 0.00 | 0.00 | 61 | 1015.6 |
| 20260903001221 | 87 | 187 | 4.0 | 7.0 | 0.00 | 0.00 | 0.00 | 61 | 1015.6 |
| 20260903001121 | 87 | 201 | 4.0 | 7.0 | 0.00 | 0.00 | 0.00 | 61 | 1015.6 |
| 20260903001021 | 87 | 215 | 4.0 | 7.0 | 0.00 | 0.00 | 0.00 | 61 | 1015.6 |
| 20260903000921 | 87 | 158 | 4.0 | 7.0 | 0.00 | 0.00 | 0.00 | 61 | 1015.6 |
| 20260903000821 | 87 | 203 | 5.0 | 7.0 | 0.00 | 0.00 | 0.00 | 60 | 1015.6 |
| 20260903000721 | 88 | 204 | 2.0 | 7.0 | 0.00 | 0.00 | 0.00 | 60 | 1015.6 |
| 20260903000621 | 88 | 100 | 2.0 | 8.0 | 0.00 | 0.00 | 0.00 | 60 | 1015.6 |
| 20260903000521 | 88 | 152 | 3.0 | 8.0 | 0.00 | 0.00 | 0.00 | 60 | 1015.6 |
| 20260903000421 | 88 | 204 | 4.0 | 8.0 | 0.00 | 0.00 | 0.00 | 60 | 1015.6 |
| 20260903000321 | 88 | 197 | 4.0 | 8.0 | 0.00 | 0.00 | 0.00 | 60 | 1015.6 |
| 20260903000221 | 88 | 180 | 4.0 | 8.0 | 0.00 | 0.00 | 0.00 | 60 | 1015.6 |
| 20260903000121 | 88 | 219 | 3.0 | 8.0 | 0.00 | 0.00 | 0.00 | 60 | 1015.6 |
| 20260903000021 | 88 | 190 | 4.0 | 8.0 | 0.00 | 0.00 | 0.00 | 60 | 1015.6 |
| 20260902235921 | 88 | 204 | 4.0 | 8.0 | 0.00 | 0.00 | 0.00 | 60 | 1015.6 |
| 20260902235821 | 88 | 205 | 3.0 | 8.0 | 0.00 | 0.00 | 0.00 | 59 | 1015.3 |
| 20260902235721 | 88 | 163 | 5.0 | 8.0 | 0.00 | 0.00 | 0.00 | 59 | 1015.3 |
| 20260902235621 | 88 | 191 | 4.0 | 8.0 | 0.00 | 0.00 | 0.00 | 59 | 1015.6 |
| 20260902235521 | 88 | 226 | 3.0 | 7.0 | 0.00 | 0.00 | 0.00 | 59 | 1015.3 |
| 20260902235421 | 88 | 229 | 3.0 | 7.0 | 0.00 | 0.00 | 0.00 | 59 | 1015.6 |
| 20260902235321 | 88 | 184 | 5.0 | 7.0 | 0.00 | 0.00 | 0.00 | 59 | 1015.6 |
| 20260902235221 | 88 | 194 | 4.0 | 7.0 | 0.00 | 0.00 | 0.00 | 59 | 1015.3 |
| 20260902235121 | 88 | 198 | 3.0 | 6.0 | 0.00 | 0.00 | 0.00 | 58 | 1015.3 |
| 20260902235021 | 88 | 184 | 4.0 | 7.0 | 0.00 | 0.00 | 0.00 | 59 | 1015.6 |
| 20260902234921 | 88 | 188 | 3.0 | 7.0 | 0.00 | 0.00 | 0.00 | 58 | 1015.6 |
| 20260902234821 | 88 | 203 | 5.0 | 7.0 | 0.00 | 0.00 | 0.00 | 58 | 1015.6 |
| 20260902234721 | 88 | 194 | 3.0 | 7.0 | 0.00 | 0.00 | 0.00 | 58 | 1015.3 |
| 20260902234621 | 88 | 186 | 3.0 | 7.0 | 0.00 | 0.00 | 0.00 | 58 | 1015.3 |
| 20260902234521 | 88 | 166 | 4.0 | 7.0 | 0.00 | 0.00 | 0.00 | 58 | 1015.3 |
| 20260902234421 | 89 | 194 | 4.0 | 7.0 | 0.00 | 0.00 | 0.00 | 58 | 1015.3 |
| 20260902234321 | 89 | 200 | 4.0 | 7.0 | 0.00 | 0.00 | 0.00 | 58 | 1015.3 |
| 20260902234221 | 89 | 219 | 3.0 | 7.0 | 0.00 | 0.00 | 0.00 | 58 | 1015.3 |
| 20260902234121 | 89 | 205 | 5.0 | 7.0 | 0.00 | 0.00 | 0.00 | 58 | 1015.3 |
| 20260902234021 | 89 | 204 | 4.0 | 7.0 | 0.00 | 0.00 | 0.00 | 57 | 1015.6 |
| 20260902233921 | 89 | 207 | 5.0 | 7.0 | 0.00 | 0.00 | 0.00 | 57 | 1015.3 |
| 20260902233821 | 89 | 212 | 4.0 | 7.0 | 0.00 | 0.00 | 0.00 | 57 | 1015.3 |
| 20260902233721 | 89 | 166 | 5.0 | 7.0 | 0.00 | 0.00 | 0.00 | 57 | 1015.3 |
| 20260902233621 | 89 | 188 | 5.0 | 6.0 | 0.00 | 0.00 | 0.00 | 57 | 1015.6 |
| 20260902233521 | 89 | 191 | 3.0 | 6.0 | 0.00 | 0.00 | 0.00 | 57 | 1015.3 |
| 20260902233421 | 89 | 172 | 2.0 | 6.0 | 0.00 | 0.00 | 0.00 | 57 | 1015.3 |
| 20260902233321 | 89 | 173 | 3.0 | 6.0 | 0.00 | 0.00 | 0.00 | 57 | 1015.3 |
| 20260902233221 | 89 | 229 | 4.0 | 6.0 | 0.00 | 0.00 | 0.00 | 57 | 1015.3 |
| 20260902233121 | 89 | 224 | 3.0 | 6.0 | 0.00 | 0.00 | 0.00 | 56 | 1015.6 |
| 20260902233021 | 89 | 197 | 2.0 | 5.0 | 0.00 | 0.00 | 0.00 | 56 | 1015.3 |
| 20260902232921 | 89 | 184 | 2.0 | 5.0 | 0.00 | 0.00 | 0.00 | 56 | 1015.3 |
| 20260902232821 | 89 | 184 | 2.0 | 5.0 | 0.00 | 0.00 | 0.00 | 56 | 1015.6 |
| 20260902232721 | 89 | 201 | 3.0 | 5.0 | 0.00 | 0.00 | 0.00 | 56 | 1015.3 |
| 20260902232621 | 89 | 203 | 4.0 | 6.0 | 0.00 | 0.00 | 0.00 | 56 | 1015.3 |
| 20260902232521 | 89 | 204 | 3.0 | 6.0 | 0.00 | 0.00 | 0.00 | 56 | 1015.6 |
| 20260902232421 | 89 | 174 | 3.0 | 6.0 | 0.00 | 0.00 | 0.00 | 56 | 1015.6 |
| 20260902232321 | 89 | 183 | 3.0 | 6.0 | 0.00 | 0.00 | 0.00 | 56 | 1015.6 |
| 20260902232221 | 89 | 200 | 3.0 | 8.0 | 0.00 | 0.00 | 0.00 | 56 | 1015.3 |
| 20260902232121 | 90 | 187 | 0.0 | 8.0 | 0.00 | 0.00 | 0.00 | 55 | 1015.3 |
| 20260902232021 | 90 | 156 | 1.0 | 8.0 | 0.00 | 0.00 | 0.00 | 55 | 1015.3 |
| 20260902231921 | 90 | 190 | 3.0 | 9.0 | 0.00 | 0.00 | 0.00 | 55 | 1015.3 |
| 20260902231821 | 90 | 176 | 3.0 | 9.0 | 0.00 | 0.00 | 0.00 | 55 | 1015.6 |
| 20260902231721 | 90 | 179 | 3.0 | 9.0 | 0.00 | 0.00 | 0.00 | 55 | 1015.3 |
| 20260902231621 | 90 | 207 | 3.0 | 9.0 | 0.00 | 0.00 | 0.00 | 55 | 1015.3 |
| 20260902231521 | 90 | 210 | 4.0 | 9.0 | 0.00 | 0.00 | 0.00 | 55 | 1015.3 |
| 20260902231421 | 90 | 212 | 3.0 | 9.0 | 0.00 | 0.00 | 0.00 | 55 | 1015.6 |
| 20260902231321 | 90 | 194 | 6.0 | 9.0 | 0.00 | 0.00 | 0.00 | 55 | 1015.3 |
| 20260902231221 | 90 | 187 | 5.0 | 9.0 | 0.00 | 0.00 | 0.00 | 54 | 1015.6 |
| 20260902231121 | 90 | 215 | 3.0 | 9.0 | 0.00 | 0.00 | 0.00 | 54 | 1015.6 |
| 20260902231021 | 90 | 197 | 4.0 | 9.0 | 0.00 | 0.00 | 0.00 | 54 | 1015.3 |
| 20260902230921 | 90 | 201 | 4.0 | 8.0 | 0.00 | 0.00 | 0.00 | 54 | 1015.6 |
| 20260902230821 | 90 | 203 | 4.0 | 8.0 | 0.00 | 0.00 | 0.00 | 54 | 1015.6 |
| 20260902230721 | 90 | 242 | 2.0 | 8.0 | 0.00 | 0.00 | 0.00 | 54 | 1015.3 |
| 20260902230621 | 90 | 193 | 5.0 | 8.0 | 0.00 | 0.00 | 0.00 | 54 | 1015.3 |
| 20260902230521 | 90 | 200 | 5.0 | 9.0 | 0.00 | 0.00 | 0.00 | 54 | 1015.6 |
| 20260902230421 | 90 | 225 | 2.0 | 9.0 | 0.00 | 0.00 | 0.00 | 54 | 1015.3 |
| 20260902230321 | 90 | 152 | 3.0 | 9.0 | 0.00 | 0.00 | 0.00 | 54 | 1015.3 |
| 20260902230221 | 90 | 205 | 4.0 | 9.0 | 0.00 | 0.00 | 0.00 | 53 | 1015.3 |
| 20260902230121 | 90 | 176 | 5.0 | 9.0 | 0.00 | 0.00 | 0.00 | 53 | 1015.3 |
| 20260902230021 | 90 | 242 | 5.0 | 9.0 | 0.00 | 0.00 | 0.00 | 53 | 1015.3 |
| 20260902225921 | 90 | 197 | 3.0 | 9.0 | 0.00 | 0.00 | 0.00 | 54 | 1015.3 |
| 20260902225821 | 91 | 131 | 3.0 | 9.0 | 0.00 | 0.00 | 0.00 | 53 | 1015.3 |
| 20260902225722 | 90 | 226 | 5.0 | 9.0 | 0.00 | 0.00 | 0.00 | 53 | 1015.3 |
| 20260902225621 | 91 | 180 | 6.0 | 9.0 | 0.00 | 0.00 | 0.00 | 53 | 1015.3 |
| 20260902225521 | 91 | 183 | 4.0 | 8.0 | 0.00 | 0.00 | 0.00 | 53 | 1015.3 |
| 20260902225421 | 91 | 158 | 4.0 | 8.0 | 0.00 | 0.00 | 0.00 | 53 | 1015.3 |
| 20260902225321 | 91 | 205 | 3.0 | 8.0 | 0.00 | 0.00 | 0.00 | 53 | 1015.3 |
| 20260902225221 | 91 | 207 | 4.0 | 8.0 | 0.00 | 0.00 | 0.00 | 53 | 1015.3 |
| 20260902225121 | 91 | 198 | 5.0 | 10.0 | 0.00 | 0.00 | 0.00 | 52 | 1015.6 |
| 20260902225021 | 91 | 238 | 5.0 | 10.0 | 0.00 | 0.00 | 0.00 | 52 | 1015.6 |
| 20260902224921 | 91 | 188 | 5.0 | 10.0 | 0.00 | 0.00 | 0.00 | 52 | 1015.6 |
| 20260902224821 | 91 | 163 | 5.0 | 10.0 | 0.00 | 0.00 | 0.00 | 52 | 1015.6 |
| 20260902224721 | 91 | 148 | 1.0 | 10.0 | 0.00 | 0.00 | 0.00 | 52 | 1015.3 |
| 20260902224621 | 91 | 10 | 0.0 | 10.0 | 0.00 | 0.00 | 0.00 | 52 | 1015.3 |
| 20260902224521 | 91 | 6 | 2.0 | 10.0 | 0.00 | 0.00 | 0.00 | 52 | 1015.3 |
| 20260902224421 | 91 | 215 | 2.0 | 10.0 | 0.00 | 0.00 | 0.00 | 52 | 1015.3 |
| 20260902224321 | 91 | 63 | 2.0 | 11.0 | 0.00 | 0.00 | 0.00 | 52 | 1015.3 |
| 20260902224221 | 91 | 204 | 6.0 | 13.0 | 0.00 | 0.00 | 0.00 | 52 | 1015.3 |
| 20260902224121 | 91 | 181 | 3.0 | 13.0 | 0.00 | 0.00 | 0.00 | 52 | 1015.3 |
| 20260902224021 | 91 | 176 | 4.0 | 13.0 | 0.00 | 0.00 | 0.00 | 52 | 1015.3 |
| 20260902223921 | 91 | 201 | 4.0 | 13.0 | 0.00 | 0.00 | 0.00 | 52 | 1015.3 |
| 20260902223821 | 91 | 228 | 6.0 | 13.0 | 0.00 | 0.00 | 0.00 | 52 | 1015.3 |
| 20260902223721 | 91 | 224 | 2.0 | 13.0 | 0.00 | 0.00 | 0.00 | 52 | 1015.3 |
| 20260902223621 | 91 | 187 | 6.0 | 13.0 | 0.00 | 0.00 | 0.00 | 51 | 1015.3 |
| 20260902223521 | 91 | 259 | 6.0 | 13.0 | 0.00 | 0.00 | 0.00 | 51 | 1015.3 |
| 20260902223421 | 91 | 188 | 6.0 | 13.0 | 0.00 | 0.00 | 0.00 | 51 | 1015.3 |
| 20260902223321 | 91 | 203 | 8.0 | 13.0 | 0.00 | 0.00 | 0.00 | 51 | 1015.3 |
| 20260902223221 | 91 | 181 | 5.0 | 10.0 | 0.00 | 0.00 | 0.00 | 50 | 1015.3 |
| 20260902223121 | 91 | 198 | 5.0 | 10.0 | 0.00 | 0.00 | 0.00 | 50 | 1015.3 |
| 20260902223021 | 91 | 165 | 5.0 | 10.0 | 0.00 | 0.00 | 0.00 | 50 | 1015.3 |
| 20260902222921 | 91 | 195 | 4.0 | 10.0 | 0.00 | 0.00 | 0.00 | 50 | 1015.6 |
| 20260902222821 | 91 | 212 | 5.0 | 10.0 | 0.00 | 0.00 | 0.00 | 50 | 1015.3 |
| 20260902222721 | 91 | 193 | 5.0 | 10.0 | 0.00 | 0.00 | 0.00 | 50 | 1015.3 |
| 20260902222622 | 91 | 172 | 6.0 | 10.0 | 0.00 | 0.00 | 0.00 | 50 | 1015.3 |
| 20260902222521 | 91 | 212 | 7.0 | 10.0 | 0.00 | 0.00 | 0.00 | 49 | 1015.6 |
| 20260902222421 | 92 | 194 | 6.0 | 9.0 | 0.00 | 0.00 | 0.00 | 50 | 1015.3 |
| 20260902222321 | 92 | 212 | 4.0 | 9.0 | 0.00 | 0.00 | 0.00 | 49 | 1015.6 |
| 20260902222221 | 92 | 210 | 4.0 | 9.0 | 0.00 | 0.00 | 0.00 | 49 | 1015.3 |
| 20260902222121 | 92 | 177 | 5.0 | 9.0 | 0.00 | 0.00 | 0.00 | 49 | 1015.6 |
| 20260902222021 | 92 | 246 | 4.0 | 9.0 | 0.00 | 0.00 | 0.00 | 49 | 1015.6 |
| 20260902221921 | 92 | 201 | 6.0 | 9.0 | 0.00 | 0.00 | 0.00 | 48 | 1015.6 |
| 20260902221821 | 92 | 215 | 3.0 | 9.0 | 0.00 | 0.00 | 0.00 | 48 | 1015.3 |
| 20260902221721 | 92 | 186 | 6.0 | 9.0 | 0.00 | 0.00 | 0.00 | 48 | 1015.6 |
| 20260902221621 | 92 | 187 | 3.0 | 11.0 | 0.00 | 0.00 | 0.00 | 48 | 1015.6 |
| 20260902221521 | 92 | 195 | 3.0 | 11.0 | 0.00 | 0.00 | 0.00 | 48 | 1015.3 |
| 20260902221421 | 92 | 203 | 5.0 | 11.0 | 0.00 | 0.00 | 0.00 | 48 | 1015.6 |
| 20260902221321 | 92 | 215 | 3.0 | 11.0 | 0.00 | 0.00 | 0.00 | 48 | 1015.6 |
| 20260902221221 | 92 | 222 | 3.0 | 11.0 | 0.00 | 0.00 | 0.00 | 48 | 1015.6 |
| 20260902221121 | 92 | 208 | 4.0 | 11.0 | 0.00 | 0.00 | 0.00 | 48 | 1015.3 |
| 20260902221021 | 92 | 176 | 5.0 | 11.0 | 0.00 | 0.00 | 0.00 | 48 | 1015.3 |
| 20260902220921 | 92 | 97 | 3.0 | 11.0 | 0.00 | 0.00 | 0.00 | 48 | 1015.3 |
| 20260902220821 | 92 | 200 | 6.0 | 11.0 | 0.00 | 0.00 | 0.00 | 47 | 1015.3 |
| 20260902220721 | 92 | 212 | 6.0 | 11.0 | 0.00 | 0.00 | 0.00 | 47 | 1015.3 |
| 20260902220621 | 92 | 188 | 6.0 | 11.0 | 0.00 | 0.00 | 0.00 | 47 | 1015.3 |
| 20260902220521 | 92 | 201 | 5.0 | 11.0 | 0.00 | 0.00 | 0.00 | 47 | 1015.6 |
| 20260902220421 | 93 | 235 | 5.0 | 11.0 | 0.00 | 0.00 | 0.00 | 47 | 1015.6 |
| 20260902220321 | 93 | 217 | 4.0 | 11.0 | 0.00 | 0.00 | 0.00 | 47 | 1015.3 |
| 20260902220221 | 93 | 198 | 4.0 | 11.0 | 0.00 | 0.00 | 0.00 | 46 | 1015.3 |
| 20260902220121 | 93 | 82 | 2.0 | 9.0 | 0.00 | 0.00 | 0.00 | 47 | 1015.3 |
| 20260902220021 | 93 | 188 | 2.0 | 9.0 | 0.00 | 0.00 | 0.00 | 47 | 1015.3 |
| 20260902215921 | 93 | 141 | 1.0 | 9.0 | 0.00 | 0.00 | 0.00 | 47 | 1015.3 |
| 20260902215821 | 93 | 211 | 4.0 | 9.0 | 0.00 | 0.00 | 0.00 | 47 | 1015.3 |
| 20260902215721 | 93 | 184 | 5.0 | 10.0 | 0.00 | 0.00 | 0.00 | 47 | 1015.3 |
| 20260902215621 | 93 | 186 | 4.0 | 10.0 | 0.00 | 0.00 | 0.00 | 47 | 1015.3 |
| 20260902215521 | 93 | 221 | 3.0 | 10.0 | 0.00 | 0.00 | 0.00 | 46 | 1015.3 |
| 20260902215421 | 93 | 194 | 5.0 | 10.0 | 0.00 | 0.00 | 0.00 | 46 | 1015.3 |
| 20260902215321 | 93 | 181 | 4.0 | 10.0 | 0.00 | 0.00 | 0.00 | 46 | 1015.3 |
| 20260902215221 | 93 | 184 | 3.0 | 12.0 | 0.00 | 0.00 | 0.00 | 46 | 1015.3 |
| 20260902215121 | 93 | 208 | 3.0 | 12.0 | 0.00 | 0.00 | 0.00 | 46 | 1015.3 |
| 20260902215021 | 93 | 200 | 4.0 | 12.0 | 0.00 | 0.00 | 0.00 | 46 | 1015.3 |
| 20260902214921 | 93 | 215 | 4.0 | 12.0 | 0.00 | 0.00 | 0.00 | 46 | 1015.3 |
| 20260902214821 | 93 | 208 | 5.0 | 12.0 | 0.00 | 0.00 | 0.00 | 45 | 1015.3 |
| 20260902214721 | 93 | 214 | 4.0 | 12.0 | 0.00 | 0.00 | 0.00 | 45 | 1015.6 |
| 20260902214621 | 93 | 172 | 2.0 | 12.0 | 0.00 | 0.00 | 0.00 | 46 | 1015.3 |
| 20260902214521 | 93 | 224 | 5.0 | 12.0 | 0.00 | 0.00 | 0.00 | 45 | 1015.3 |
| 20260902214421 | 93 | 212 | 6.0 | 12.0 | 0.00 | 0.00 | 0.00 | 44 | 1015.3 |
| 20260902214321 | 93 | 42 | 4.0 | 12.0 | 0.00 | 0.00 | 0.00 | 45 | 1015.3 |
| 20260902214221 | 93 | 267 | 5.0 | 12.0 | 0.00 | 0.00 | 0.00 | 45 | 1015.6 |
| 20260902214121 | 93 | 165 | 5.0 | 12.0 | 0.00 | 0.00 | 0.00 | 45 | 1015.6 |
| 20260902214021 | 93 | 226 | 6.0 | 12.0 | 0.00 | 0.00 | 0.00 | 45 | 1015.6 |
| 20260902213921 | 93 | 229 | 6.0 | 13.0 | 0.00 | 0.00 | 0.00 | 44 | 1015.3 |
| 20260902213821 | 93 | 156 | 6.0 | 13.0 | 0.00 | 0.00 | 0.00 | 45 | 1015.6 |
| 20260902213721 | 93 | 153 | 2.0 | 13.0 | 0.00 | 0.00 | 0.00 | 45 | 1015.6 |
| 20260902213621 | 93 | 176 | 6.0 | 13.0 | 0.00 | 0.00 | 0.00 | 45 | 1015.6 |
| 20260902213521 | 93 | 169 | 5.0 | 13.0 | 0.00 | 0.00 | 0.00 | 44 | 1015.6 |
| 20260902213421 | 93 | 217 | 6.0 | 13.0 | 0.00 | 0.00 | 0.00 | 44 | 1015.6 |
| 20260902213321 | 93 | 222 | 4.0 | 13.0 | 0.00 | 0.00 | 0.00 | 44 | 1015.6 |
| 20260902213221 | 93 | 193 | 6.0 | 14.0 | 0.00 | 0.00 | 0.00 | 44 | 1015.6 |
| 20260902213121 | 93 | 173 | 6.0 | 14.0 | 0.00 | 0.00 | 0.00 | 44 | 1015.3 |
| 20260902213021 | 93 | 149 | 7.0 | 14.0 | 0.00 | 0.00 | 0.00 | 44 | 1015.3 |
| 20260902212921 | 93 | 195 | 7.0 | 14.0 | 0.00 | 0.00 | 0.00 | 44 | 1015.3 |
| 20260902212821 | 93 | 155 | 7.0 | 14.0 | 0.00 | 0.00 | 0.00 | 43 | 1015.3 |
| 20260902212721 | 93 | 176 | 6.0 | 14.0 | 0.00 | 0.00 | 0.00 | 43 | 1015.6 |
| 20260902212621 | 93 | 177 | 5.0 | 14.0 | 0.00 | 0.00 | 0.00 | 43 | 1015.3 |
| 20260902212521 | 93 | 224 | 7.0 | 14.0 | 0.00 | 0.00 | 0.00 | 44 | 1015.6 |
| 20260902212421 | 93 | 197 | 5.0 | 14.0 | 0.00 | 0.00 | 0.00 | 44 | 1015.6 |
| 20260902212321 | 94 | 191 | 6.0 | 14.0 | 0.00 | 0.00 | 0.00 | 44 | 1015.3 |
| 20260902212221 | 93 | 224 | 3.0 | 13.0 | 0.00 | 0.00 | 0.00 | 44 | 1015.3 |
| 20260902212121 | 93 | 110 | 5.0 | 13.0 | 0.00 | 0.00 | 0.00 | 43 | 1015.6 |
| 20260902212021 | 93 | 146 | 4.0 | 13.0 | 0.00 | 0.00 | 0.00 | 43 | 1015.3 |
| 20260902211921 | 93 | 183 | 6.0 | 13.0 | 0.00 | 0.00 | 0.00 | 43 | 1015.3 |
| 20260902211821 | 93 | 201 | 8.0 | 13.0 | 0.00 | 0.00 | 0.00 | 43 | 1015.6 |
| 20260902211721 | 94 | 173 | 7.0 | 13.0 | 0.00 | 0.00 | 0.00 | 43 | 1015.3 |
| 20260902211621 | 93 | 187 | 9.0 | 13.0 | 0.00 | 0.00 | 0.00 | 43 | 1015.3 |
| 20260902211521 | 94 | 214 | 8.0 | 12.0 | 0.00 | 0.00 | 0.00 | 42 | 1015.3 |
| 20260902211421 | 94 | 179 | 7.0 | 12.0 | 0.00 | 0.00 | 0.00 | 42 | 1015.3 |
| 20260902211321 | 94 | 217 | 5.0 | 12.0 | 0.00 | 0.00 | 0.00 | 43 | 1015.3 |
| 20260902211221 | 94 | 211 | 5.0 | 12.0 | 0.00 | 0.00 | 0.00 | 42 | 1015.3 |
| 20260902211121 | 94 | 229 | 6.0 | 12.0 | 0.00 | 0.00 | 0.00 | 43 | 1015.3 |
| 20260902211021 | 94 | 181 | 5.0 | 12.0 | 0.00 | 0.00 | 0.00 | 43 | 1015.6 |
| 20260902210921 | 94 | 222 | 2.0 | 10.0 | 0.00 | 0.00 | 0.00 | 44 | 1015.3 |
| 20260902210821 | 94 | 194 | 1.0 | 10.0 | 0.00 | 0.00 | 0.00 | 43 | 1015.3 |
| 20260902210721 | 94 | 215 | 3.0 | 16.0 | 0.00 | 0.00 | 0.00 | 43 | 1015.6 |
| 20260902210621 | 94 | 287 | 3.0 | 16.0 | 0.00 | 0.00 | 0.00 | 43 | 1015.6 |
| 20260902210521 | 94 | 198 | 6.0 | 16.0 | 0.00 | 0.00 | 0.00 | 43 | 1015.6 |
| 20260902210421 | 94 | 224 | 3.0 | 16.0 | 0.00 | 0.00 | 0.00 | 43 | 1015.6 |
| 20260902210321 | 94 | 69 | 3.0 | 16.0 | 0.00 | 0.00 | 0.00 | 43 | 1015.6 |
| 20260902210221 | 94 | 146 | 2.0 | 16.0 | 0.00 | 0.00 | 0.00 | 44 | 1015.6 |
| 20260902210121 | 94 | 45 | 3.0 | 16.0 | 0.00 | 0.00 | 0.00 | 43 | 1015.6 |
| 20260902210021 | 93 | 187 | 6.0 | 16.0 | 0.00 | 0.00 | 0.00 | 43 | 1015.6 |
| 20260902205921 | 93 | 195 | 4.0 | 16.0 | 0.00 | 0.00 | 0.00 | 43 | 1015.6 |
| 20260902205821 | 93 | 266 | 8.0 | 16.0 | 0.00 | 0.00 | 0.00 | 43 | 1015.6 |
| 20260902205721 | 93 | 176 | 8.0 | 13.0 | 0.00 | 0.00 | 0.00 | 43 | 1015.6 |
| 20260902205621 | 93 | 193 | 6.0 | 12.0 | 0.00 | 0.00 | 0.00 | 44 | 1015.6 |
| 20260902205521 | 94 | 197 | 4.0 | 12.0 | 0.00 | 0.00 | 0.00 | 43 | 1015.6 |
| 20260902205421 | 93 | 242 | 6.0 | 12.0 | 0.00 | 0.00 | 0.00 | 43 | 1015.6 |
| 20260902205321 | 94 | 222 | 3.0 | 12.0 | 0.00 | 0.00 | 0.00 | 43 | 1015.6 |
| 20260902205221 | 93 | 201 | 6.0 | 12.0 | 0.00 | 0.00 | 0.00 | 42 | 1015.6 |
| 20260902205121 | 93 | 170 | 6.0 | 12.0 | 0.00 | 0.00 | 0.00 | 41 | 1015.6 |
| 20260902205021 | 94 | 179 | 7.0 | 12.0 | 0.00 | 0.00 | 0.00 | 41 | 1015.6 |
| 20260902204921 | 94 | 197 | 6.0 | 16.0 | 0.00 | 0.00 | 0.00 | 42 | 1015.6 |
| 20260902204821 | 94 | 193 | 4.0 | 16.0 | 0.00 | 0.00 | 0.00 | 42 | 1015.6 |
| 20260902204721 | 94 | 197 | 4.0 | 16.0 | 0.00 | 0.00 | 0.00 | 43 | 1015.6 |
| 20260902204621 | 94 | 156 | 5.0 | 16.0 | 0.00 | 0.00 | 0.00 | 42 | 1015.6 |
| 20260902204521 | 94 | 235 | 5.0 | 16.0 | 0.00 | 0.00 | 0.00 | 43 | 1015.6 |
| 20260902204421 | 94 | 264 | 5.0 | 16.0 | 0.00 | 0.00 | 0.00 | 43 | 1015.6 |
| 20260902204321 | 93 | 210 | 7.0 | 16.0 | 0.00 | 0.00 | 0.00 | 43 | 1015.6 |
| 20260902204221 | 94 | 212 | 8.0 | 16.0 | 0.00 | 0.00 | 0.00 | 43 | 1015.6 |
| 20260902204121 | 94 | 210 | 7.0 | 16.0 | 0.00 | 0.00 | 0.00 | 42 | 1015.6 |
| 20260902204021 | 94 | 245 | 9.0 | 16.0 | 0.00 | 0.00 | 0.00 | 42 | 1015.6 |
| 20260902203921 | 94 | 183 | 5.0 | 12.0 | 0.00 | 0.00 | 0.00 | 42 | 1015.6 |
| 20260902203821 | 94 | 191 | 2.0 | 13.0 | 0.00 | 0.00 | 0.00 | 42 | 1015.6 |
| 20260902203721 | 94 | 290 | 2.0 | 14.0 | 0.00 | 0.00 | 0.00 | 42 | 1015.6 |
| 20260902203621 | 94 | 245 | 3.0 | 14.0 | 0.00 | 0.00 | 0.00 | 42 | 1015.6 |
| 20260902203521 | 94 | 203 | 4.0 | 14.0 | 0.00 | 0.00 | 0.00 | 42 | 1015.6 |
| 20260902203421 | 94 | 311 | 2.0 | 14.0 | 0.00 | 0.00 | 0.00 | 44 | 1015.6 |
| 20260902203321 | 94 | 259 | 4.0 | 14.0 | 0.00 | 0.00 | 0.00 | 43 | 1015.6 |
| 20260902203221 | 94 | 224 | 4.0 | 14.0 | 0.00 | 0.00 | 0.00 | 43 | 1016.0 |
| 20260902203121 | 94 | 170 | 3.0 | 14.0 | 0.00 | 0.00 | 0.00 | 43 | 1016.0 |
| 20260902203021 | 94 | 302 | 6.0 | 14.0 | 0.00 | 0.00 | 0.00 | 42 | 1016.0 |
| 20260902202921 | 94 | 187 | 6.0 | 14.0 | 0.00 | 0.00 | 0.00 | 43 | 1016.0 |
| 20260902202821 | 94 | 180 | 6.0 | 14.0 | 0.00 | 0.00 | 0.00 | 42 | 1016.0 |
| 20260902202721 | 94 | 8 | 5.0 | 13.0 | 0.00 | 0.00 | 0.00 | 41 | 1016.0 |
| 20260902202621 | 94 | 194 | 5.0 | 13.0 | 0.00 | 0.00 | 0.00 | 41 | 1016.0 |
| 20260902202521 | 94 | 218 | 3.0 | 13.0 | 0.00 | 0.00 | 0.00 | 42 | 1016.0 |
| 20260902202421 | 94 | 167 | 3.0 | 13.0 | 0.00 | 0.00 | 0.00 | 42 | 1016.0 |
| 20260902202321 | 94 | 197 | 6.0 | 13.0 | 0.00 | 0.00 | 0.00 | 43 | 1016.0 |
| 20260902202221 | 94 | 176 | 5.0 | 15.0 | 0.00 | 0.00 | 0.00 | 43 | 1016.0 |
| 20260902202121 | 94 | 211 | 8.0 | 15.0 | 0.00 | 0.00 | 0.00 | 42 | 1016.0 |
| 20260902202021 | 94 | 172 | 4.0 | 15.0 | 0.00 | 0.00 | 0.00 | 43 | 1016.0 |
| 20260902201921 | 94 | 181 | 5.0 | 15.0 | 0.00 | 0.00 | 0.00 | 43 | 1016.0 |
| 20260902201821 | 94 | 188 | 3.0 | 15.0 | 0.00 | 0.00 | 0.00 | 43 | 1016.0 |
| 20260902201721 | 94 | 55 | 2.0 | 15.0 | 0.00 | 0.00 | 0.00 | 43 | 1016.0 |
| 20260902201621 | 94 | 326 | 5.0 | 15.0 | 0.00 | 0.00 | 0.00 | 42 | 1016.0 |
| 20260902201521 | 94 | 224 | 6.0 | 15.0 | 0.00 | 0.00 | 0.00 | 43 | 1016.0 |
| 20260902201421 | 94 | 224 | 7.0 | 15.0 | 0.00 | 0.00 | 0.00 | 42 | 1016.0 |
| 20260902201321 | 94 | 169 | 9.0 | 15.0 | 0.00 | 0.00 | 0.00 | 43 | 1016.0 |
| 20260902201221 | 94 | 153 | 6.0 | 12.0 | 0.00 | 0.00 | 0.00 | 43 | 1016.0 |
| 20260902201121 | 94 | 170 | 8.0 | 12.0 | 0.00 | 0.00 | 0.00 | 42 | 1016.3 |
| 20260902201021 | 94 | 194 | 6.0 | 12.0 | 0.00 | 0.00 | 0.00 | 42 | 1016.0 |
| 20260902200921 | 94 | 224 | 3.0 | 12.0 | 0.00 | 0.00 | 0.00 | 42 | 1016.0 |
| 20260902200821 | 94 | 219 | 2.0 | 12.0 | 0.00 | 0.00 | 0.00 | 42 | 1016.0 |
| 20260902200721 | 94 | 224 | 6.0 | 12.0 | 0.00 | 0.00 | 0.00 | 41 | 1016.0 |
| 20260902200621 | 94 | 204 | 6.0 | 12.0 | 0.00 | 0.00 | 0.00 | 41 | 1016.3 |
| 20260902200521 | 94 | 204 | 7.0 | 12.0 | 0.00 | 0.00 | 0.00 | 41 | 1016.3 |
| 20260902200421 | 94 | 225 | 6.0 | 12.0 | 0.00 | 0.00 | 0.00 | 41 | 1016.3 |
| 20260902200321 | 94 | 242 | 7.0 | 12.0 | 0.00 | 0.00 | 0.00 | 41 | 1016.3 |
| 20260902200221 | 94 | 191 | 7.0 | 12.0 | 0.00 | 0.00 | 0.00 | 42 | 1016.3 |
| 20260902200121 | 94 | 203 | 7.0 | 12.0 | 0.00 | 0.00 | 0.00 | 42 | 1016.3 |
| 20260902200021 | 94 | 167 | 8.0 | 12.0 | 0.00 | 0.00 | 0.00 | 41 | 1016.3 |
| 20260902195921 | 94 | 190 | 6.0 | 12.0 | 0.00 | 0.00 | 0.00 | 41 | 1016.3 |
| 20260902195821 | 94 | 188 | 3.0 | 12.0 | 0.00 | 0.00 | 0.00 | 42 | 1016.3 |
| 20260902195721 | 94 | 184 | 6.0 | 12.0 | 0.00 | 0.00 | 0.00 | 41 | 1016.3 |
| 20260902195621 | 94 | 219 | 7.0 | 12.0 | 0.00 | 0.00 | 0.00 | 42 | 1016.3 |
| 20260902195521 | 94 | 215 | 6.0 | 12.0 | 0.00 | 0.00 | 0.00 | 41 | 1016.3 |
| 20260902195421 | 94 | 188 | 6.0 | 12.0 | 0.00 | 0.00 | 0.00 | 40 | 1016.3 |
| 20260902195321 | 94 | 218 | 6.0 | 12.0 | 0.00 | 0.00 | 0.00 | 40 | 1016.3 |
| 20260902195221 | 94 | 188 | 7.0 | 12.0 | 0.00 | 0.00 | 0.00 | 39 | 1016.3 |
| 20260902195121 | 94 | 180 | 8.0 | 12.0 | 0.00 | 0.00 | 0.00 | 39 | 1016.3 |
| 20260902195021 | 94 | 224 | 6.0 | 12.0 | 0.00 | 0.00 | 0.00 | 39 | 1016.3 |
| 20260902194921 | 94 | 195 | 5.0 | 12.0 | 0.00 | 0.00 | 0.00 | 39 | 1016.3 |
| 20260902194821 | 94 | 198 | 7.0 | 12.0 | 0.00 | 0.00 | 0.00 | 40 | 1016.3 |
| 20260902194721 | 94 | 177 | 6.0 | 12.0 | 0.00 | 0.00 | 0.00 | 40 | 1016.3 |
| 20260902194621 | 94 | 218 | 5.0 | 12.0 | 0.00 | 0.00 | 0.00 | 39 | 1016.3 |
| 20260902194521 | 94 | 132 | 6.0 | 12.0 | 0.00 | 0.00 | 0.00 | 39 | 1016.3 |
| 20260902194421 | 94 | 163 | 3.0 | 12.0 | 0.00 | 0.00 | 0.00 | 40 | 1016.3 |
| 20260902194321 | 94 | 187 | 6.0 | 12.0 | 0.00 | 0.00 | 0.00 | 39 | 1016.3 |
| 20260902194221 | 94 | 174 | 3.0 | 14.0 | 0.00 | 0.00 | 0.00 | 39 | 1016.3 |
| 20260902194121 | 94 | 343 | 3.0 | 14.0 | 0.00 | 0.00 | 0.00 | 40 | 1016.3 |
| 20260902194021 | 94 | 187 | 7.0 | 15.0 | 0.00 | 0.00 | 0.00 | 38 | 1016.3 |
| 20260902193921 | 94 | 148 | 3.0 | 15.0 | 0.00 | 0.00 | 0.00 | 38 | 1016.3 |
| 20260902193821 | 94 | 160 | 4.0 | 15.0 | 0.00 | 0.00 | 0.00 | 40 | 1016.3 |
| 20260902193721 | 94 | 191 | 7.0 | 15.0 | 0.00 | 0.00 | 0.00 | 39 | 1016.3 |
| 20260902193621 | 94 | 146 | 6.0 | 15.0 | 0.00 | 0.00 | 0.00 | 40 | 1016.3 |
| 20260902193521 | 94 | 195 | 7.0 | 15.0 | 0.00 | 0.00 | 0.00 | 40 | 1016.3 |
| 20260902193421 | 94 | 166 | 7.0 | 15.0 | 0.00 | 0.00 | 0.00 | 40 | 1016.3 |
| 20260902193321 | 94 | 203 | 10.0 | 15.0 | 0.00 | 0.00 | 0.00 | 40 | 1016.3 |
| 20260902193221 | 94 | 177 | 8.0 | 15.0 | 0.00 | 0.00 | 0.00 | 40 | 1016.3 |
| 20260902193121 | 94 | 181 | 8.0 | 15.0 | 0.00 | 0.00 | 0.00 | 40 | 1016.3 |
| 20260902193021 | 95 | 169 | 7.0 | 12.0 | 0.00 | 0.00 | 0.00 | 39 | 1016.3 |
| 20260902192921 | 95 | 129 | 2.0 | 11.0 | 0.00 | 0.00 | 0.00 | 39 | 1016.3 |
| 20260902192821 | 95 | 180 | 6.0 | 14.0 | 0.00 | 0.00 | 0.00 | 39 | 1016.3 |
| 20260902192721 | 95 | 167 | 5.0 | 14.0 | 0.00 | 0.00 | 0.00 | 40 | 1016.3 |
| 20260902192621 | 95 | 314 | 1.0 | 14.0 | 0.00 | 0.00 | 0.00 | 41 | 1016.3 |
| 20260902192521 | 95 | 149 | 2.0 | 14.0 | 0.00 | 0.00 | 0.00 | 40 | 1016.3 |
| 20260902192421 | 95 | 291 | 3.0 | 14.0 | 0.00 | 0.00 | 0.00 | 40 | 1016.3 |
| 20260902192321 | 95 | 186 | 5.0 | 14.0 | 0.00 | 0.00 | 0.00 | 41 | 1016.3 |
| 20260902192221 | 94 | 252 | 6.0 | 14.0 | 0.00 | 0.00 | 0.00 | 41 | 1016.3 |
| 20260902192121 | 95 | 226 | 5.0 | 14.0 | 0.00 | 0.00 | 0.00 | 40 | 1016.3 |
| 20260902192021 | 94 | 255 | 5.0 | 14.0 | 0.00 | 0.00 | 0.00 | 40 | 1016.3 |
| 20260902191921 | 94 | 174 | 9.0 | 14.0 | 0.00 | 0.00 | 0.00 | 39 | 1016.3 |
| 20260902191821 | 95 | 195 | 5.0 | 13.0 | 0.00 | 0.00 | 0.00 | 40 | 1016.3 |
| 20260902191721 | 95 | 215 | 6.0 | 13.0 | 0.00 | 0.00 | 0.00 | 40 | 1016.3 |
| 20260902191621 | 94 | 217 | 7.0 | 13.0 | 0.00 | 0.00 | 0.00 | 39 | 1016.3 |
| 20260902191521 | 94 | 179 | 6.0 | 13.0 | 0.00 | 0.00 | 0.00 | 41 | 1016.3 |
| 20260902191421 | 94 | 193 | 7.0 | 13.0 | 0.00 | 0.00 | 0.00 | 40 | 1016.3 |
| 20260902191321 | 95 | 229 | 4.0 | 13.0 | 0.00 | 0.00 | 0.00 | 41 | 1016.3 |
| 20260902191221 | 94 | 184 | 2.0 | 13.0 | 0.00 | 0.00 | 0.00 | 41 | 1016.3 |
| 20260902191121 | 94 | 176 | 4.0 | 13.0 | 0.00 | 0.00 | 0.00 | 40 | 1016.3 |
| 20260902191021 | 94 | 203 | 7.0 | 13.0 | 0.00 | 0.00 | 0.00 | 41 | 1016.3 |
| 20260902190921 | 94 | 207 | 9.0 | 13.0 | 0.00 | 0.00 | 0.00 | 40 | 1016.6 |
| 20260902190821 | 94 | 180 | 4.0 | 10.0 | 0.00 | 0.00 | 0.00 | 40 | 1016.3 |
| 20260902190721 | 94 | 329 | 2.0 | 10.0 | 0.00 | 0.00 | 0.00 | 40 | 1016.6 |
| 20260902190621 | 94 | 158 | 3.0 | 15.0 | 0.00 | 0.00 | 0.00 | 41 | 1016.6 |
| 20260902190521 | 94 | 187 | 2.0 | 15.0 | 0.00 | 0.00 | 0.00 | 41 | 1016.3 |
| 20260902190421 | 94 | 225 | 3.0 | 16.0 | 0.00 | 0.00 | 0.00 | 41 | 1016.6 |
| 20260902190321 | 94 | 31 | 1.0 | 16.0 | 0.00 | 0.00 | 0.00 | 42 | 1016.3 |
| 20260902190221 | 94 | 262 | 2.0 | 16.0 | 0.00 | 0.00 | 0.00 | 42 | 1016.3 |
| 20260902190121 | 94 | 212 | 4.0 | 16.0 | 0.00 | 0.00 | 0.00 | 42 | 1016.3 |
| 20260902190021 | 94 | 186 | 2.0 | 16.0 | 0.00 | 0.00 | 0.00 | 42 | 1016.3 |
| 20260902185921 | 93 | 238 | 6.0 | 16.0 | 0.00 | 0.00 | 0.00 | 42 | 1016.3 |
| 20260902185821 | 93 | 191 | 6.0 | 16.0 | 0.00 | 0.00 | 0.00 | 41 | 1016.3 |
| 20260902185721 | 93 | 183 | 10.0 | 16.0 | 0.00 | 0.00 | 0.00 | 41 | 1016.6 |
| 20260902185621 | 93 | 210 | 9.0 | 16.0 | 0.00 | 0.00 | 0.00 | 40 | 1016.3 |
| 20260902185521 | 94 | 193 | 9.0 | 16.0 | 0.00 | 0.00 | 0.00 | 41 | 1016.3 |
| 20260902185421 | 94 | 120 | 7.0 | 12.0 | 0.00 | 0.00 | 0.00 | 41 | 1016.3 |
| 20260902185321 | 94 | 191 | 6.0 | 12.0 | 0.00 | 0.00 | 0.00 | 40 | 1016.3 |
| 20260902185221 | 94 | 204 | 3.0 | 12.0 | 0.00 | 0.00 | 0.00 | 42 | 1016.3 |
| 20260902185121 | 94 | 225 | 2.0 | 11.0 | 0.00 | 0.00 | 0.00 | 42 | 1016.3 |
| 20260902185021 | 94 | 200 | 7.0 | 11.0 | 0.00 | 0.00 | 0.00 | 41 | 1016.6 |
| 20260902184921 | 94 | 191 | 5.0 | 11.0 | 0.00 | 0.00 | 0.00 | 42 | 1016.3 |
| 20260902184821 | 94 | 240 | 2.0 | 10.0 | 0.00 | 0.00 | 0.00 | 42 | 1016.3 |
| 20260902184721 | 94 | 212 | 2.0 | 10.0 | 0.00 | 0.00 | 0.00 | 42 | 1016.3 |
| 20260902184621 | 94 | 153 | 3.0 | 10.0 | 0.00 | 0.00 | 0.00 | 42 | 1016.3 |
| 20260902184521 | 94 | 101 | 4.0 | 10.0 | 0.00 | 0.00 | 0.00 | 43 | 1016.3 |
| 20260902184421 | 94 | 195 | 5.0 | 10.0 | 0.00 | 0.00 | 0.00 | 43 | 1016.3 |
| 20260902184321 | 94 | 187 | 6.0 | 10.0 | 0.00 | 0.00 | 0.00 | 42 | 1016.3 |
| 20260902184221 | 94 | 232 | 5.0 | 10.0 | 0.00 | 0.00 | 0.00 | 42 | 1016.3 |
| 20260902184121 | 94 | 170 | 6.0 | 10.0 | 0.00 | 0.00 | 0.00 | 41 | 1016.3 |
| 20260902184021 | 94 | 207 | 6.0 | 10.0 | 0.00 | 0.00 | 0.00 | 41 | 1016.6 |
| 20260902183921 | 94 | 181 | 6.0 | 10.0 | 0.00 | 0.00 | 0.00 | 42 | 1016.6 |
| 20260902183821 | 94 | 148 | 4.0 | 15.0 | 0.00 | 0.00 | 0.00 | 42 | 1016.6 |
| 20260902183721 | 94 | 170 | 2.0 | 15.0 | 0.00 | 0.00 | 0.00 | 42 | 1016.6 |
| 20260902183621 | 94 | 305 | 3.0 | 15.0 | 0.00 | 0.00 | 0.00 | 42 | 1016.6 |
| 20260902183521 | 94 | 239 | 4.0 | 15.0 | 0.00 | 0.00 | 0.00 | 42 | 1016.6 |
| 20260902183421 | 94 | 239 | 6.0 | 15.0 | 0.00 | 0.00 | 0.00 | 41 | 1016.6 |
| 20260902183321 | 94 | 210 | 5.0 | 15.0 | 0.00 | 0.00 | 0.00 | 42 | 1016.6 |
| 20260902183221 | 94 | 201 | 5.0 | 15.0 | 0.00 | 0.00 | 0.00 | 41 | 1016.3 |
| 20260902183121 | 94 | 210 | 5.0 | 15.0 | 0.00 | 0.00 | 0.00 | 40 | 1016.6 |
| 20260902183021 | 94 | 221 | 6.0 | 15.0 | 0.00 | 0.00 | 0.00 | 40 | 1016.6 |
| 20260902182921 | 94 | 229 | 9.0 | 15.0 | 0.00 | 0.00 | 0.00 | 39 | 1016.6 |
| 20260902182821 | 94 | 243 | 6.0 | 12.0 | 0.00 | 0.00 | 0.00 | 39 | 1016.6 |
| 20260902182721 | 94 | 170 | 5.0 | 13.0 | 0.00 | 0.00 | 0.00 | 41 | 1016.3 |
| 20260902182621 | 94 | 135 | 3.0 | 13.0 | 0.00 | 0.00 | 0.00 | 41 | 1016.3 |
| 20260902182521 | 94 | 274 | 2.0 | 13.0 | 0.00 | 0.00 | 0.00 | 42 | 1016.6 |
| 20260902182421 | 94 | 242 | 5.0 | 13.0 | 0.00 | 0.00 | 0.00 | 41 | 1016.6 |
| 20260902182321 | 94 | 191 | 5.0 | 13.0 | 0.00 | 0.00 | 0.00 | 41 | 1016.6 |
| 20260902182221 | 93 | 231 | 4.0 | 13.0 | 0.00 | 0.00 | 0.00 | 41 | 1016.6 |
| 20260902182121 | 94 | 269 | 2.0 | 13.0 | 0.00 | 0.00 | 0.00 | 41 | 1016.6 |
| 20260902182021 | 93 | 235 | 3.0 | 13.0 | 0.00 | 0.00 | 0.00 | 41 | 1016.6 |
| 20260902181921 | 93 | 232 | 7.0 | 13.0 | 0.00 | 0.00 | 0.00 | 41 | 1016.6 |
| 20260902181821 | 93 | 183 | 9.0 | 13.0 | 0.00 | 0.00 | 0.00 | 40 | 1016.6 |
| 20260902181721 | 93 | 222 | 6.0 | 13.0 | 0.00 | 0.00 | 0.00 | 41 | 1016.6 |
| 20260902181621 | 93 | 215 | 8.0 | 13.0 | 0.00 | 0.00 | 0.00 | 41 | 1016.6 |
| 20260902181521 | 93 | 197 | 6.0 | 13.0 | 0.00 | 0.00 | 0.00 | 42 | 1016.6 |
| 20260902181421 | 93 | 145 | 8.0 | 13.0 | 0.00 | 0.00 | 0.00 | 41 | 1016.6 |
| 20260902181321 | 93 | 207 | 8.0 | 13.0 | 0.00 | 0.00 | 0.00 | 41 | 1016.6 |
| 20260902181221 | 93 | 188 | 8.0 | 13.0 | 0.00 | 0.00 | 0.00 | 43 | 1016.6 |
| 20260902181121 | 93 | 166 | 5.0 | 12.0 | 0.00 | 0.00 | 0.00 | 44 | 1016.6 |
| 20260902181021 | 93 | 183 | 5.0 | 12.0 | 0.00 | 0.00 | 0.00 | 43 | 1016.6 |
| 20260902180921 | 93 | 186 | 5.0 | 12.0 | 0.00 | 0.00 | 0.00 | 44 | 1016.6 |
| 20260902180821 | 93 | 205 | 6.0 | 12.0 | 0.00 | 0.00 | 0.00 | 45 | 1016.6 |
| 20260902180721 | 93 | 191 | 5.0 | 12.0 | 0.00 | 0.00 | 0.00 | 44 | 1016.6 |
| 20260902180621 | 93 | 204 | 4.0 | 12.0 | 0.00 | 0.00 | 0.00 | 43 | 1016.6 |
| 20260902180521 | 93 | 204 | 6.0 | 12.0 | 0.00 | 0.00 | 0.00 | 43 | 1016.6 |
| 20260902180421 | 93 | 201 | 8.0 | 12.0 | 0.00 | 0.00 | 0.00 | 42 | 1016.6 |
| 20260902180321 | 93 | 173 | 4.0 | 11.0 | 0.00 | 0.00 | 0.00 | 45 | 1016.6 |
| 20260902180221 | 93 | 218 | 7.0 | 11.0 | 0.00 | 0.00 | 0.00 | 43 | 1016.6 |
| 20260902180121 | 93 | 290 | 5.0 | 10.0 | 0.00 | 0.00 | 0.00 | 43 | 1016.6 |
| 20260902180021 | 93 | 198 | 7.0 | 10.0 | 0.00 | 0.00 | 0.00 | 44 | 1016.6 |
| 20260902175921 | 93 | 181 | 6.0 | 10.0 | 0.00 | 0.00 | 0.00 | 44 | 1016.6 |
| 20260902175821 | 93 | 208 | 4.0 | 9.0 | 0.00 | 0.00 | 0.00 | 45 | 1016.6 |
| 20260902175721 | 93 | 304 | 2.0 | 9.0 | 0.00 | 0.00 | 0.00 | 45 | 1016.6 |
| 20260902175621 | 93 | 340 | 2.0 | 9.0 | 0.00 | 0.00 | 0.00 | 44 | 1016.6 |
| 20260902175521 | 93 | 219 | 3.0 | 9.0 | 0.00 | 0.00 | 0.00 | 44 | 1016.6 |
| 20260902175421 | 93 | 183 | 5.0 | 9.0 | 0.00 | 0.00 | 0.00 | 44 | 1016.6 |
| 20260902175321 | 93 | 229 | 6.0 | 9.0 | 0.00 | 0.00 | 0.00 | 45 | 1017.0 |
| 20260902175221 | 93 | 162 | 3.0 | 8.0 | 0.00 | 0.00 | 0.00 | 45 | 1016.6 |
| 20260902175121 | 93 | 25 | 1.0 | 8.0 | 0.00 | 0.00 | 0.00 | 45 | 1017.0 |
| 20260902175021 | 93 | 179 | 2.0 | 8.0 | 0.00 | 0.00 | 0.00 | 45 | 1017.0 |
| 20260902174921 | 93 | 297 | 3.0 | 8.0 | 0.00 | 0.00 | 0.00 | 44 | 1017.0 |
| 20260902174821 | 93 | 249 | 4.0 | 8.0 | 0.00 | 0.00 | 0.00 | 44 | 1017.0 |
| 20260902174721 | 93 | 307 | 4.0 | 8.0 | 0.00 | 0.00 | 0.00 | 44 | 1017.0 |
| 20260902174621 | 93 | 287 | 5.0 | 9.0 | 0.00 | 0.00 | 0.00 | 43 | 1017.0 |
| 20260902174521 | 93 | 143 | 3.0 | 9.0 | 0.00 | 0.00 | 0.00 | 45 | 1017.0 |
| 20260902174421 | 93 | 257 | 2.0 | 9.0 | 0.00 | 0.00 | 0.00 | 45 | 1017.0 |
| 20260902174321 | 93 | 300 | 2.0 | 9.0 | 0.00 | 0.00 | 0.00 | 45 | 1017.0 |
| 20260902174221 | 93 | 162 | 3.0 | 9.0 | 0.00 | 0.00 | 0.00 | 45 | 1017.0 |
| 20260902174121 | 93 | 155 | 3.0 | 13.0 | 0.00 | 0.00 | 0.00 | 45 | 1017.0 |
| 20260902174021 | 93 | 193 | 5.0 | 13.0 | 0.00 | 0.00 | 0.00 | 44 | 1017.0 |
| 20260902173921 | 93 | 305 | 3.0 | 14.0 | 0.00 | 0.00 | 0.00 | 45 | 1017.0 |
| 20260902173821 | 93 | 197 | 3.0 | 14.0 | 0.00 | 0.00 | 0.00 | 45 | 1017.0 |
| 20260902173721 | 93 | 183 | 4.0 | 14.0 | 0.00 | 0.00 | 0.00 | 44 | 1017.0 |
| 20260902173621 | 93 | 84 | 2.0 | 14.0 | 0.00 | 0.00 | 0.00 | 45 | 1017.0 |
| 20260902173521 | 93 | 214 | 2.0 | 14.0 | 0.00 | 0.00 | 0.00 | 45 | 1017.0 |
| 20260902173421 | 93 | 238 | 3.0 | 14.0 | 0.00 | 0.00 | 0.00 | 45 | 1017.0 |
| 20260902173321 | 93 | 340 | 4.0 | 14.0 | 0.00 | 0.00 | 0.00 | 44 | 1017.0 |
| 20260902173221 | 93 | 210 | 8.0 | 14.0 | 0.00 | 0.00 | 0.00 | 43 | 1017.0 |
| 20260902173121 | 93 | 190 | 6.0 | 14.0 | 0.00 | 0.00 | 0.00 | 43 | 1017.0 |
| 20260902173021 | 93 | 231 | 10.0 | 14.0 | 0.00 | 0.00 | 0.00 | 43 | 1017.0 |
| 20260902172921 | 93 | 203 | 8.0 | 13.0 | 0.00 | 0.00 | 0.00 | 43 | 1017.0 |
| 20260902172821 | 93 | 190 | 7.0 | 11.0 | 0.00 | 0.00 | 0.00 | 42 | 1017.0 |
| 20260902172721 | 93 | 150 | 6.0 | 11.0 | 0.00 | 0.00 | 0.00 | 43 | 1017.0 |
| 20260902172621 | 93 | 210 | 6.0 | 11.0 | 0.00 | 0.00 | 0.00 | 43 | 1017.0 |
| 20260902172521 | 93 | 204 | 7.0 | 11.0 | 0.00 | 0.00 | 0.00 | 43 | 1017.0 |
| 20260902172421 | 93 | 193 | 5.0 | 10.0 | 0.00 | 0.00 | 0.00 | 44 | 1017.0 |
| 20260902172321 | 93 | 179 | 6.0 | 10.0 | 0.00 | 0.00 | 0.00 | 44 | 1017.0 |
| 20260902172221 | 93 | 200 | 6.0 | 9.0 | 0.00 | 0.00 | 0.00 | 44 | 1017.0 |
| 20260902172121 | 93 | 208 | 3.0 | 7.0 | 0.00 | 0.00 | 0.00 | 46 | 1017.0 |
| 20260902172021 | 93 | 288 | 3.0 | 9.0 | 0.00 | 0.00 | 0.00 | 46 | 1017.0 |
| 20260902171921 | 93 | 302 | 3.0 | 9.0 | 0.00 | 0.00 | 0.00 | 46 | 1017.0 |
| 20260902171821 | 93 | 170 | 2.0 | 9.0 | 0.00 | 0.00 | 0.00 | 46 | 1017.0 |
| 20260902171721 | 93 | 291 | 2.0 | 11.0 | 0.00 | 0.00 | 0.00 | 45 | 1017.0 |
| 20260902171621 | 93 | 228 | 3.0 | 11.0 | 0.00 | 0.00 | 0.00 | 45 | 1017.0 |
| 20260902171521 | 93 | 184 | 5.0 | 11.0 | 0.00 | 0.00 | 0.00 | 44 | 1017.0 |
| 20260902171421 | 93 | 160 | 3.0 | 11.0 | 0.00 | 0.00 | 0.00 | 46 | 1017.0 |
| 20260902171321 | 93 | 160 | 2.0 | 11.0 | 0.00 | 0.00 | 0.00 | 46 | 1017.0 |
| 20260902171221 | 92 | 295 | 3.0 | 11.0 | 0.00 | 0.00 | 0.00 | 46 | 1017.3 |
| 20260902171121 | 92 | 198 | 7.0 | 11.0 | 0.00 | 0.00 | 0.00 | 45 | 1017.0 |
| 20260902171021 | 92 | 177 | 4.0 | 11.0 | 0.00 | 0.00 | 0.00 | 45 | 1017.3 |
| 20260902170921 | 92 | 125 | 6.0 | 11.0 | 0.00 | 0.00 | 0.00 | 45 | 1017.3 |
| 20260902170821 | 92 | 190 | 8.0 | 11.0 | 0.00 | 0.00 | 0.00 | 44 | 1017.0 |
| 20260902170721 | 92 | 188 | 4.0 | 10.0 | 0.00 | 0.00 | 0.00 | 45 | 1017.3 |
| 20260902170621 | 92 | 356 | 3.0 | 10.0 | 0.00 | 0.00 | 0.00 | 46 | 1017.3 |
| 20260902170521 | 92 | 169 | 6.0 | 11.0 | 0.00 | 0.00 | 0.00 | 45 | 1017.3 |
| 20260902170421 | 92 | 183 | 6.0 | 11.0 | 0.00 | 0.00 | 0.00 | 44 | 1017.3 |
| 20260902170321 | 92 | 188 | 4.0 | 11.0 | 0.00 | 0.00 | 0.00 | 45 | 1017.3 |
| 20260902170221 | 92 | 248 | 5.0 | 11.0 | 0.00 | 0.00 | 0.00 | 45 | 1017.3 |
| 20260902170121 | 92 | 173 | 6.0 | 11.0 | 0.00 | 0.00 | 0.00 | 44 | 1017.3 |
| 20260902170021 | 93 | 208 | 6.0 | 11.0 | 0.00 | 0.00 | 0.00 | 44 | 1017.3 |
| 20260902165921 | 93 | 186 | 5.0 | 11.0 | 0.00 | 0.00 | 0.00 | 44 | 1017.3 |
| 20260902165821 | 93 | 221 | 2.0 | 11.0 | 0.00 | 0.00 | 0.00 | 45 | 1017.3 |
| 20260902165721 | 93 | 249 | 3.0 | 11.0 | 0.00 | 0.00 | 0.00 | 46 | 1017.3 |
| 20260902165621 | 92 | 193 | 7.0 | 11.0 | 0.00 | 0.00 | 0.00 | 44 | 1017.3 |
| 20260902165521 | 93 | 170 | 4.0 | 10.0 | 0.00 | 0.00 | 0.00 | 47 | 1017.3 |
| 20260902165421 | 93 | 136 | 1.0 | 9.0 | 0.00 | 0.00 | 0.00 | 47 | 1017.3 |
| 20260902165321 | 93 | 262 | 1.0 | 9.0 | 0.00 | 0.00 | 0.00 | 47 | 1017.3 |
| 20260902165221 | 92 | 44 | 0.0 | 9.0 | 0.00 | 0.00 | 0.00 | 47 | 1017.3 |
| 20260902165121 | 92 | 163 | 5.0 | 9.0 | 0.00 | 0.00 | 0.00 | 46 | 1017.3 |
| 20260902165021 | 92 | 211 | 2.0 | 8.0 | 0.00 | 0.00 | 0.00 | 46 | 1017.3 |
| 20260902164921 | 92 | 248 | 5.0 | 8.0 | 0.00 | 0.00 | 0.00 | 46 | 1017.3 |
| 20260902164821 | 92 | 173 | 5.0 | 8.0 | 0.00 | 0.00 | 0.00 | 47 | 1017.3 |
| 20260902164721 | 92 | 186 | 5.0 | 8.0 | 0.00 | 0.00 | 0.00 | 47 | 1017.3 |
| 20260902164621 | 92 | 194 | 4.0 | 8.0 | 0.00 | 0.00 | 0.00 | 49 | 1017.3 |
| 20260902164521 | 92 | 225 | 1.0 | 8.0 | 0.00 | 0.00 | 0.00 | 49 | 1017.3 |
| 20260902164421 | 92 | 257 | 1.0 | 8.0 | 0.00 | 0.00 | 0.00 | 48 | 1017.3 |
| 20260902164321 | 92 | 260 | 4.0 | 8.0 | 0.00 | 0.00 | 0.00 | 48 | 1017.3 |
| 20260902164221 | 92 | 184 | 4.0 | 9.0 | 0.00 | 0.00 | 0.00 | 47 | 1017.3 |
| 20260902164121 | 92 | 187 | 3.0 | 9.0 | 0.00 | 0.00 | 0.00 | 48 | 1017.3 |
| 20260902164021 | 92 | 190 | 6.0 | 9.0 | 0.00 | 0.00 | 0.00 | 47 | 1017.3 |
| 20260902163921 | 92 | 176 | 3.0 | 9.0 | 0.00 | 0.00 | 0.00 | 48 | 1017.3 |
| 20260902163821 | 92 | 193 | 5.0 | 9.0 | 0.00 | 0.00 | 0.00 | 48 | 1017.3 |
| 20260902163721 | 92 | 214 | 4.0 | 9.0 | 0.00 | 0.00 | 0.00 | 49 | 1017.3 |
| 20260902163621 | 92 | 90 | 2.0 | 9.0 | 0.00 | 0.00 | 0.00 | 49 | 1017.3 |
| 20260902163521 | 92 | 205 | 4.0 | 9.0 | 0.00 | 0.00 | 0.00 | 49 | 1017.3 |
| 20260902163421 | 92 | 165 | 3.0 | 9.0 | 0.00 | 0.00 | 0.00 | 49 | 1017.3 |
| 20260902163321 | 91 | 193 | 5.0 | 9.0 | 0.00 | 0.00 | 0.00 | 48 | 1017.3 |
| 20260902163221 | 92 | 205 | 2.0 | 7.0 | 0.00 | 0.00 | 0.00 | 48 | 1017.3 |
| 20260902163121 | 92 | 235 | 4.0 | 7.0 | 0.00 | 0.00 | 0.00 | 47 | 1017.3 |
| 20260902163021 | 92 | 210 | 2.0 | 7.0 | 0.00 | 0.00 | 0.00 | 47 | 1017.3 |
| 20260902162921 | 92 | 242 | 3.0 | 7.0 | 0.00 | 0.00 | 0.00 | 48 | 1017.3 |
| 20260902162821 | 92 | 293 | 1.0 | 8.0 | 0.00 | 0.00 | 0.00 | 48 | 1017.3 |
| 20260902162721 | 92 | 184 | 2.0 | 8.0 | 0.00 | 0.00 | 0.00 | 47 | 1017.3 |
| 20260902162621 | 92 | 314 | 2.0 | 8.0 | 0.00 | 0.00 | 0.00 | 48 | 1017.3 |
| 20260902162521 | 92 | 28 | 1.0 | 8.0 | 0.00 | 0.00 | 0.00 | 48 | 1017.3 |
| 20260902162421 | 92 | 266 | 4.0 | 8.0 | 0.00 | 0.00 | 0.00 | 48 | 1017.3 |
| 20260902162321 | 92 | 194 | 5.0 | 8.0 | 0.00 | 0.00 | 0.00 | 47 | 1017.3 |
| 20260902162221 | 91 | 195 | 2.0 | 8.0 | 0.00 | 0.00 | 0.00 | 47 | 1017.3 |
| 20260902162121 | 91 | 117 | 4.0 | 8.0 | 0.00 | 0.00 | 0.00 | 47 | 1017.3 |
| 20260902162021 | 91 | 249 | 3.0 | 8.0 | 0.00 | 0.00 | 0.00 | 48 | 1017.3 |
| 20260902161921 | 91 | 212 | 4.0 | 8.0 | 0.00 | 0.00 | 0.00 | 48 | 1017.3 |
| 20260902161821 | 91 | 163 | 1.0 | 9.0 | 0.00 | 0.00 | 0.00 | 48 | 1017.3 |
| 20260902161721 | 91 | 163 | 2.0 | 10.0 | 0.00 | 0.00 | 0.00 | 48 | 1017.3 |
| 20260902161621 | 91 | 214 | 2.0 | 10.0 | 0.00 | 0.00 | 0.00 | 47 | 1017.3 |
| 20260902161521 | 91 | 136 | 2.0 | 10.0 | 0.00 | 0.00 | 0.00 | 48 | 1017.3 |
| 20260902161421 | 91 | 308 | 3.0 | 10.0 | 0.00 | 0.00 | 0.00 | 47 | 1017.3 |
| 20260902161321 | 91 | 270 | 3.0 | 10.0 | 0.00 | 0.00 | 0.00 | 48 | 1017.3 |
| 20260902161221 | 91 | 32 | 4.0 | 10.0 | 0.00 | 0.00 | 0.00 | 48 | 1017.3 |
| 20260902161121 | 91 | 24 | 4.0 | 11.0 | 0.00 | 0.00 | 0.00 | 48 | 1017.3 |
| 20260902161021 | 90 | 210 | 4.0 | 11.0 | 0.00 | 0.00 | 0.00 | 48 | 1017.3 |
| 20260902160921 | 90 | 159 | 5.0 | 11.0 | 0.00 | 0.00 | 0.00 | 48 | 1017.3 |
| 20260902160821 | 90 | 191 | 6.0 | 11.0 | 0.00 | 0.00 | 0.00 | 48 | 1017.3 |
| 20260902160721 | 90 | 297 | 2.0 | 11.0 | 0.00 | 0.00 | 0.00 | 50 | 1017.3 |
| 20260902160621 | 90 | 278 | 3.0 | 11.0 | 0.00 | 0.00 | 0.00 | 50 | 1017.3 |
| 20260902160521 | 90 | 169 | 1.0 | 11.0 | 0.00 | 0.00 | 0.00 | 49 | 1017.3 |
| 20260902160421 | 90 | 288 | 2.0 | 11.0 | 0.00 | 0.00 | 0.00 | 49 | 1017.3 |
| 20260902160321 | 90 | 269 | 4.0 | 11.0 | 0.00 | 0.00 | 0.00 | 48 | 1017.3 |
| 20260902160221 | 90 | 328 | 5.0 | 11.0 | 0.00 | 0.00 | 0.00 | 48 | 1017.3 |
| 20260902160121 | 90 | 201 | 6.0 | 10.0 | 0.00 | 0.00 | 0.00 | 48 | 1017.3 |
| 20260902160021 | 90 | 179 | 5.0 | 9.0 | 0.00 | 0.00 | 0.00 | 48 | 1017.3 |
| 20260902155921 | 90 | 221 | 5.0 | 9.0 | 0.00 | 0.00 | 0.00 | 49 | 1017.3 |
| 20260902155821 | 90 | 248 | 1.0 | 9.0 | 0.00 | 0.00 | 0.00 | 52 | 1017.3 |
| 20260902155721 | 90 | 173 | 2.0 | 9.0 | 0.00 | 0.00 | 0.00 | 52 | 1017.3 |
| 20260902155621 | 90 | 302 | 2.0 | 9.0 | 0.00 | 0.00 | 0.00 | 52 | 1017.3 |
| 20260902155521 | 90 | 13 | 1.0 | 9.0 | 0.00 | 0.00 | 0.00 | 52 | 1017.7 |
| 20260902155421 | 90 | 105 | 1.0 | 9.0 | 0.00 | 0.00 | 0.00 | 51 | 1017.3 |
| 20260902155321 | 90 | 269 | 2.0 | 9.0 | 0.00 | 0.00 | 0.00 | 51 | 1017.7 |
| 20260902155221 | 90 | 285 | 3.0 | 9.0 | 0.00 | 0.00 | 0.00 | 52 | 1017.3 |
| 20260902155121 | 90 | 194 | 3.0 | 9.0 | 0.00 | 0.00 | 0.00 | 52 | 1017.3 |
| 20260902155021 | 90 | 200 | 5.0 | 9.0 | 0.00 | 0.00 | 0.00 | 51 | 1017.3 |
| 20260902154921 | 90 | 139 | 0.0 | 11.0 | 0.00 | 0.00 | 0.00 | 53 | 1017.3 |
| 20260902154821 | 90 | 342 | 1.0 | 11.0 | 0.00 | 0.00 | 0.00 | 53 | 1017.3 |
| 20260902154721 | 90 | 323 | 2.0 | 11.0 | 0.00 | 0.00 | 0.00 | 52 | 1017.3 |
| 20260902154621 | 90 | 340 | 2.0 | 11.0 | 0.00 | 0.00 | 0.00 | 52 | 1017.3 |
| 20260902154521 | 90 | 246 | 3.0 | 11.0 | 0.00 | 0.00 | 0.00 | 52 | 1017.3 |
| 20260902154421 | 90 | 315 | 5.0 | 11.0 | 0.00 | 0.00 | 0.00 | 52 | 1017.3 |
| 20260902154321 | 90 | 221 | 2.0 | 11.0 | 0.00 | 0.00 | 0.00 | 52 | 1017.3 |
| 20260902154221 | 90 | 219 | 1.0 | 11.0 | 0.00 | 0.00 | 0.00 | 51 | 1017.3 |
| 20260902154121 | 89 | 156 | 4.0 | 11.0 | 0.00 | 0.00 | 0.00 | 51 | 1017.3 |
| 20260902154021 | 89 | 180 | 5.0 | 11.0 | 0.00 | 0.00 | 0.00 | 50 | 1017.3 |
| 20260902153921 | 89 | 166 | 5.0 | 8.0 | 0.00 | 0.00 | 0.00 | 51 | 1017.3 |
| 20260902153821 | 89 | 190 | 5.0 | 8.0 | 0.00 | 0.00 | 0.00 | 52 | 1017.3 |
| 20260902153721 | 89 | 177 | 4.0 | 8.0 | 0.00 | 0.00 | 0.00 | 52 | 1017.3 |
| 20260902153621 | 89 | 200 | 4.0 | 8.0 | 0.00 | 0.00 | 0.00 | 52 | 1017.3 |
| 20260902153521 | 89 | 197 | 3.0 | 8.0 | 0.00 | 0.00 | 0.00 | 53 | 1017.3 |
| 20260902153421 | 89 | 111 | 0.0 | 8.0 | 0.00 | 0.00 | 0.00 | 54 | 1017.3 |
| 20260902153321 | 89 | 259 | 1.0 | 8.0 | 0.00 | 0.00 | 0.00 | 54 | 1017.3 |
| 20260902153221 | 88 | 210 | 5.0 | 8.0 | 0.00 | 0.00 | 0.00 | 53 | 1017.3 |
| 20260902153121 | 88 | 250 | 4.0 | 8.0 | 0.00 | 0.00 | 0.00 | 55 | 1017.3 |
| 20260902153021 | 88 | 232 | 2.0 | 8.0 | 0.00 | 0.00 | 0.00 | 54 | 1017.7 |
| 20260902152921 | 88 | 73 | 0.0 | 8.0 | 0.00 | 0.00 | 0.00 | 56 | 1017.3 |
| 20260902152821 | 88 | 338 | 1.0 | 8.0 | 0.00 | 0.00 | 0.00 | 55 | 1017.3 |
| 20260902152721 | 88 | 264 | 3.0 | 8.0 | 0.00 | 0.00 | 0.00 | 55 | 1017.3 |
| 20260902152621 | 88 | 274 | 3.0 | 8.0 | 0.00 | 0.00 | 0.00 | 55 | 1017.3 |
| 20260902152521 | 88 | 236 | 3.0 | 8.0 | 0.00 | 0.00 | 0.00 | 55 | 1017.3 |
| 20260902152421 | 88 | 280 | 5.0 | 8.0 | 0.00 | 0.00 | 0.00 | 56 | 1017.3 |
| 20260902152321 | 88 | 159 | 4.0 | 8.0 | 0.00 | 0.00 | 0.00 | 56 | 1017.3 |
| 20260902152221 | 88 | 198 | 4.0 | 8.0 | 0.00 | 0.00 | 0.00 | 55 | 1017.3 |
| 20260902152121 | 88 | 194 | 5.0 | 8.0 | 0.00 | 0.00 | 0.00 | 55 | 1017.3 |
| 20260902152021 | 88 | 259 | 3.0 | 8.0 | 0.00 | 0.00 | 0.00 | 57 | 1017.3 |
| 20260902151921 | 88 | 309 | 3.0 | 8.0 | 0.00 | 0.00 | 0.00 | 57 | 1017.3 |
| 20260902151821 | 87 | 160 | 3.0 | 8.0 | 0.00 | 0.00 | 0.00 | 57 | 1017.3 |
| 20260902151721 | 87 | 187 | 1.0 | 8.0 | 0.00 | 0.00 | 0.00 | 58 | 1017.3 |
| 20260902151621 | 87 | 231 | 2.0 | 8.0 | 0.00 | 0.00 | 0.00 | 57 | 1017.3 |
| 20260902151521 | 87 | 285 | 3.0 | 8.0 | 0.00 | 0.00 | 0.00 | 57 | 1017.3 |
| 20260902151421 | 87 | 264 | 4.0 | 8.0 | 0.00 | 0.00 | 0.00 | 57 | 1017.3 |
| 20260902151321 | 87 | 264 | 2.0 | 7.0 | 0.00 | 0.00 | 0.00 | 57 | 1017.3 |
| 20260902151221 | 87 | 217 | 4.0 | 7.0 | 0.00 | 0.00 | 0.00 | 58 | 1017.3 |
| 20260902151121 | 87 | 197 | 2.0 | 6.0 | 0.00 | 0.00 | 0.00 | 58 | 1017.7 |
| 20260902151021 | 87 | 311 | 1.0 | 6.0 | 0.00 | 0.00 | 0.00 | 58 | 1017.7 |
| 20260902150921 | 87 | 194 | 3.0 | 7.0 | 0.00 | 0.00 | 0.00 | 57 | 1017.3 |
| 20260902150821 | 87 | 259 | 3.0 | 7.0 | 0.00 | 0.00 | 0.00 | 57 | 1017.3 |
| 20260902150722 | 87 | 269 | 2.0 | 7.0 | 0.00 | 0.00 | 0.00 | 58 | 1017.3 |
| 20260902150621 | 87 | 222 | 1.0 | 7.0 | 0.00 | 0.00 | 0.00 | 58 | 1017.3 |
| 20260902150521 | 87 | 256 | 3.0 | 7.0 | 0.00 | 0.00 | 0.00 | 58 | 1017.3 |
| 20260902150421 | 87 | 217 | 2.0 | 7.0 | 0.00 | 0.00 | 0.00 | 58 | 1017.3 |
| 20260902150321 | 87 | 84 | 1.0 | 7.0 | 0.00 | 0.00 | 0.00 | 58 | 1017.3 |
| 20260902150221 | 86 | 193 | 2.0 | 7.0 | 0.00 | 0.00 | 0.00 | 58 | 1017.3 |
| 20260902150121 | 86 | 277 | 4.0 | 7.0 | 0.00 | 0.00 | 0.00 | 58 | 1017.3 |
| 20260902150021 | 86 | 256 | 4.0 | 9.0 | 0.00 | 0.00 | 0.00 | 58 | 1017.3 |
| 20260902145921 | 86 | 309 | 3.0 | 9.0 | 0.00 | 0.00 | 0.00 | 60 | 1017.7 |
| 20260902145821 | 86 | 319 | 2.0 | 9.0 | 0.00 | 0.00 | 0.00 | 60 | 1017.3 |
| 20260902145721 | 86 | 232 | 1.0 | 9.0 | 0.00 | 0.00 | 0.00 | 60 | 1017.3 |
| 20260902145621 | 86 | 287 | 2.0 | 9.0 | 0.00 | 0.00 | 0.00 | 60 | 1017.3 |
| 20260902145521 | 86 | 315 | 1.0 | 9.0 | 0.00 | 0.00 | 0.00 | 59 | 1017.3 |
| 20260902145421 | 86 | 309 | 2.0 | 9.0 | 0.00 | 0.00 | 0.00 | 59 | 1017.7 |
| 20260902145321 | 86 | 229 | 1.0 | 9.0 | 0.00 | 0.00 | 0.00 | 59 | 1017.3 |
| 20260902145221 | 86 | 283 | 2.0 | 9.0 | 0.00 | 0.00 | 0.00 | 60 | 1017.3 |
| 20260902145121 | 86 | 249 | 4.0 | 9.0 | 0.00 | 0.00 | 0.00 | 59 | 1017.3 |
| 20260902145021 | 86 | 37 | 2.0 | 6.0 | 0.00 | 0.00 | 0.00 | 60 | 1017.3 |
| 20260902144921 | 86 | 204 | 1.0 | 6.0 | 0.00 | 0.00 | 0.00 | 60 | 1017.7 |
| 20260902144821 | 85 | 82 | 1.0 | 6.0 | 0.00 | 0.00 | 0.00 | 61 | 1017.3 |
| 20260902144721 | 85 | 134 | 2.0 | 7.0 | 0.00 | 0.00 | 0.00 | 60 | 1017.7 |
| 20260902144621 | 85 | 308 | 4.0 | 8.0 | 0.00 | 0.00 | 0.00 | 60 | 1017.3 |
| 20260902144521 | 85 | 333 | 2.0 | 8.0 | 0.00 | 0.00 | 0.00 | 61 | 1017.7 |
| 20260902144421 | 85 | 333 | 1.0 | 8.0 | 0.00 | 0.00 | 0.00 | 61 | 1017.7 |
| 20260902144321 | 85 | 283 | 2.0 | 8.0 | 0.00 | 0.00 | 0.00 | 61 | 1017.7 |
| 20260902144221 | 85 | 333 | 2.0 | 8.0 | 0.00 | 0.00 | 0.00 | 61 | 1017.7 |
| 20260902144121 | 85 | 3 | 1.0 | 8.0 | 0.00 | 0.00 | 0.00 | 61 | 1017.7 |
| 20260902144021 | 85 | 207 | 2.0 | 8.0 | 0.00 | 0.00 | 0.00 | 61 | 1017.3 |
| 20260902143921 | 85 | 346 | 2.0 | 8.0 | 0.00 | 0.00 | 0.00 | 61 | 1017.7 |
| 20260902143821 | 85 | 228 | 3.0 | 8.0 | 0.00 | 0.00 | 0.00 | 60 | 1017.7 |
| 20260902143721 | 85 | 253 | 3.0 | 8.0 | 0.00 | 0.00 | 0.00 | 61 | 1017.7 |
| 20260902143621 | 84 | 287 | 2.0 | 6.0 | 0.00 | 0.00 | 0.00 | 62 | 1017.3 |
| 20260902143521 | 85 | 298 | 2.0 | 6.0 | 0.00 | 0.00 | 0.00 | 62 | 1017.7 |
| 20260902143421 | 84 | 173 | 1.0 | 6.0 | 0.00 | 0.00 | 0.00 | 62 | 1017.3 |
| 20260902143321 | 84 | 198 | 3.0 | 6.0 | 0.00 | 0.00 | 0.00 | 61 | 1017.3 |
| 20260902143221 | 84 | 255 | 2.0 | 6.0 | 0.00 | 0.00 | 0.00 | 62 | 1017.3 |
| 20260902143121 | 84 | 226 | 3.0 | 6.0 | 0.00 | 0.00 | 0.00 | 61 | 1017.7 |
| 20260902143021 | 84 | 198 | 2.0 | 6.0 | 0.00 | 0.00 | 0.00 | 62 | 1017.7 |
| 20260902142921 | 84 | 277 | 4.0 | 6.0 | 0.00 | 0.00 | 0.00 | 62 | 1017.7 |
| 20260902142821 | 84 | 203 | 4.0 | 6.0 | 0.00 | 0.00 | 0.00 | 62 | 1017.7 |
| 20260902142721 | 84 | 273 | 1.0 | 6.0 | 0.00 | 0.00 | 0.00 | 63 | 1017.7 |
| 20260902142621 | 84 | 315 | 2.0 | 7.0 | 0.00 | 0.00 | 0.00 | 63 | 1017.7 |
| 20260902142521 | 84 | 257 | 2.0 | 8.0 | 0.00 | 0.00 | 0.00 | 63 | 1017.7 |
| 20260902142421 | 84 | 203 | 2.0 | 8.0 | 0.00 | 0.00 | 0.00 | 63 | 1017.7 |
| 20260902142321 | 84 | 305 | 2.0 | 8.0 | 0.00 | 0.00 | 0.00 | 63 | 1017.7 |
| 20260902142221 | 84 | 270 | 3.0 | 8.0 | 0.00 | 0.00 | 0.00 | 63 | 1017.7 |
| 20260902142121 | 83 | 226 | 3.0 | 8.0 | 0.00 | 0.00 | 0.00 | 63 | 1017.7 |
| 20260902142021 | 84 | 332 | 2.0 | 8.0 | 0.00 | 0.00 | 0.00 | 63 | 1017.7 |
| 20260902141921 | 83 | 285 | 2.0 | 8.0 | 0.00 | 0.00 | 0.00 | 63 | 1017.7 |
| 20260902141821 | 83 | 132 | 1.0 | 9.0 | 0.00 | 0.00 | 0.00 | 63 | 1017.7 |
| 20260902141721 | 83 | 302 | 4.0 | 9.0 | 0.00 | 0.00 | 0.00 | 63 | 1017.7 |
| 20260902141621 | 83 | 203 | 5.0 | 9.0 | 0.00 | 0.00 | 0.00 | 63 | 1017.7 |
| 20260902141521 | 83 | 225 | 3.0 | 9.0 | 0.00 | 0.00 | 0.00 | 64 | 1017.3 |
| 20260902141421 | 83 | 291 | 3.0 | 9.0 | 0.00 | 0.00 | 0.00 | 64 | 1017.3 |
| 20260902141321 | 83 | 322 | 2.0 | 9.0 | 0.00 | 0.00 | 0.00 | 64 | 1017.7 |
| 20260902141221 | 83 | 113 | 3.0 | 9.0 | 0.00 | 0.00 | 0.00 | 64 | 1017.7 |
| 20260902141121 | 83 | 188 | 3.0 | 9.0 | 0.00 | 0.00 | 0.00 | 64 | 1017.3 |
| 20260902141021 | 83 | 312 | 4.0 | 9.0 | 0.00 | 0.00 | 0.00 | 64 | 1017.7 |
| 20260902140921 | 83 | 194 | 4.0 | 9.0 | 0.00 | 0.00 | 0.00 | 64 | 1017.7 |
| 20260902140821 | 83 | 129 | 2.0 | 7.0 | 0.00 | 0.00 | 0.00 | 65 | 1017.7 |
| 20260902140721 | 83 | 172 | 2.0 | 7.0 | 0.00 | 0.00 | 0.00 | 65 | 1017.7 |
| 20260902140621 | 83 | 259 | 4.0 | 7.0 | 0.00 | 0.00 | 0.00 | 65 | 1017.7 |
| 20260902140521 | 83 | 291 | 4.0 | 7.0 | 0.00 | 0.00 | 0.00 | 65 | 1017.7 |
| 20260902140421 | 83 | 304 | 2.0 | 6.0 | 0.00 | 0.00 | 0.00 | 65 | 1017.3 |
| 20260902140321 | 83 | 250 | 1.0 | 6.0 | 0.00 | 0.00 | 0.00 | 65 | 1017.3 |
| 20260902140221 | 83 | 236 | 2.0 | 6.0 | 0.00 | 0.00 | 0.00 | 65 | 1017.7 |
| 20260902140121 | 82 | 263 | 2.0 | 6.0 | 0.00 | 0.00 | 0.00 | 65 | 1017.7 |
| 20260902140021 | 82 | 212 | 2.0 | 6.0 | 0.00 | 0.00 | 0.00 | 65 | 1017.7 |
| 20260902135921 | 83 | 308 | 3.0 | 6.0 | 0.00 | 0.00 | 0.00 | 65 | 1017.7 |
| 20260902135821 | 82 | 280 | 3.0 | 6.0 | 0.00 | 0.00 | 0.00 | 66 | 1017.7 |
| 20260902135721 | 82 | 166 | 1.0 | 7.0 | 0.00 | 0.00 | 0.00 | 67 | 1017.3 |
| 20260902135621 | 82 | 352 | 0.0 | 7.0 | 0.00 | 0.00 | 0.00 | 67 | 1017.3 |
| 20260902135521 | 82 | 352 | 0.0 | 7.0 | 0.00 | 0.00 | 0.00 | 67 | 1017.7 |
| 20260902135421 | 82 | 352 | 2.0 | 7.0 | 0.00 | 0.00 | 0.00 | 67 | 1017.7 |
| 20260902135321 | 82 | 332 | 2.0 | 7.0 | 0.00 | 0.00 | 0.00 | 67 | 1017.3 |
| 20260902135221 | 82 | 302 | 2.0 | 7.0 | 0.00 | 0.00 | 0.00 | 67 | 1017.7 |
| 20260902135121 | 82 | 314 | 3.0 | 7.0 | 0.00 | 0.00 | 0.00 | 67 | 1017.7 |
| 20260902135021 | 82 | 53 | 2.0 | 7.0 | 0.00 | 0.00 | 0.00 | 68 | 1017.7 |
| 20260902134921 | 81 | 176 | 4.0 | 7.0 | 0.00 | 0.00 | 0.00 | 68 | 1017.7 |
| 20260902134821 | 81 | 110 | 4.0 | 7.0 | 0.00 | 0.00 | 0.00 | 67 | 1017.7 |
| 20260902134721 | 81 | 277 | 2.0 | 6.0 | 0.00 | 0.00 | 0.00 | 68 | 1017.7 |
| 20260902134621 | 81 | 229 | 4.0 | 6.0 | 0.00 | 0.00 | 0.00 | 67 | 1017.7 |
| 20260902134521 | 81 | 195 | 2.0 | 6.0 | 0.00 | 0.00 | 0.00 | 68 | 1017.7 |
| 20260902134421 | 81 | 316 | 4.0 | 6.0 | 0.00 | 0.00 | 0.00 | 68 | 1017.7 |
| 20260902134321 | 81 | 273 | 2.0 | 6.0 | 0.00 | 0.00 | 0.00 | 69 | 1017.7 |
| 20260902134221 | 81 | 288 | 1.0 | 6.0 | 0.00 | 0.00 | 0.00 | 69 | 1017.7 |
| 20260902134121 | 81 | 240 | 1.0 | 6.0 | 0.00 | 0.00 | 0.00 | 69 | 1017.7 |
| 20260902134021 | 81 | 169 | 2.0 | 6.0 | 0.00 | 0.00 | 0.00 | 69 | 1017.7 |
| 20260902133921 | 81 | 44 | 2.0 | 6.0 | 0.00 | 0.00 | 0.00 | 69 | 1017.7 |
| 20260902133821 | 81 | 134 | 1.0 | 6.0 | 0.00 | 0.00 | 0.00 | 70 | 1017.7 |
| 20260902133721 | 81 | 184 | 3.0 | 6.0 | 0.00 | 0.00 | 0.00 | 70 | 1017.7 |
| 20260902133621 | 80 | 187 | 4.0 | 6.0 | 0.00 | 0.00 | 0.00 | 70 | 1017.7 |
| 20260902133521 | 80 | 219 | 2.0 | 5.0 | 0.00 | 0.00 | 0.00 | 70 | 1017.3 |
| 20260902133421 | 80 | 260 | 1.0 | 9.0 | 0.00 | 0.00 | 0.00 | 70 | 1017.7 |
| 20260902133321 | 81 | 297 | 2.0 | 9.0 | 0.00 | 0.00 | 0.00 | 70 | 1017.3 |
| 20260902133221 | 81 | 77 | 0.0 | 9.0 | 0.00 | 0.00 | 0.00 | 71 | 1017.7 |
| 20260902133121 | 80 | 77 | 1.0 | 9.0 | 0.00 | 0.00 | 0.00 | 71 | 1017.7 |
| 20260902133021 | 80 | 336 | 3.0 | 9.0 | 0.00 | 0.00 | 0.00 | 71 | 1017.7 |
| 20260902132921 | 80 | 214 | 2.0 | 9.0 | 0.00 | 0.00 | 0.00 | 71 | 1017.7 |
| 20260902132821 | 80 | 246 | 3.0 | 9.0 | 0.00 | 0.00 | 0.00 | 71 | 1017.3 |
| 20260902132721 | 80 | 156 | 3.0 | 9.0 | 0.00 | 0.00 | 0.00 | 70 | 1017.3 |
| 20260902132621 | 80 | 236 | 3.0 | 9.0 | 0.00 | 0.00 | 0.00 | 70 | 1017.3 |
| 20260902132521 | 80 | 181 | 4.0 | 9.0 | 0.00 | 0.00 | 0.00 | 70 | 1017.3 |
| 20260902132421 | 80 | 232 | 3.0 | 7.0 | 0.00 | 0.00 | 0.00 | 71 | 1017.3 |
| 20260902132321 | 80 | 218 | 2.0 | 8.0 | 0.00 | 0.00 | 0.00 | 71 | 1017.3 |
| 20260902132221 | 80 | 174 | 5.0 | 8.0 | 0.00 | 0.00 | 0.00 | 71 | 1017.3 |
| 20260902132121 | 80 | 152 | 2.0 | 8.0 | 0.00 | 0.00 | 0.00 | 71 | 1017.3 |
| 20260902132021 | 80 | 356 | 3.0 | 8.0 | 0.00 | 0.00 | 0.00 | 71 | 1017.7 |
| 20260902131921 | 80 | 224 | 2.0 | 8.0 | 0.00 | 0.00 | 0.00 | 71 | 1017.3 |
| 20260902131821 | 80 | 285 | 2.0 | 8.0 | 0.00 | 0.00 | 0.00 | 72 | 1017.7 |
| 20260902131721 | 80 | 188 | 4.0 | 8.0 | 0.00 | 0.00 | 0.00 | 72 | 1017.3 |
| 20260902131621 | 80 | 195 | 2.0 | 8.0 | 0.00 | 0.00 | 0.00 | 71 | 1017.3 |
| 20260902131521 | 80 | 260 | 2.0 | 8.0 | 0.00 | 0.00 | 0.00 | 72 | 1017.3 |
| 20260902131421 | 79 | 238 | 5.0 | 8.0 | 0.00 | 0.00 | 0.00 | 72 | 1017.3 |
| 20260902131321 | 79 | 211 | 3.0 | 6.0 | 0.00 | 0.00 | 0.00 | 71 | 1017.3 |
| 20260902131221 | 79 | 160 | 2.0 | 6.0 | 0.00 | 0.00 | 0.00 | 72 | 1017.7 |
| 20260902131121 | 79 | 342 | 3.0 | 6.0 | 0.00 | 0.00 | 0.00 | 72 | 1017.3 |
| 20260902131021 | 79 | 187 | 3.0 | 6.0 | 0.00 | 0.00 | 0.00 | 72 | 1017.3 |
| 20260902130921 | 79 | 215 | 1.0 | 6.0 | 0.00 | 0.00 | 0.00 | 73 | 1017.7 |
| 20260902130821 | 79 | 311 | 3.0 | 8.0 | 0.00 | 0.00 | 0.00 | 73 | 1017.7 |
| 20260902130721 | 79 | 214 | 3.0 | 8.0 | 0.00 | 0.00 | 0.00 | 72 | 1017.3 |
| 20260902130621 | 79 | 198 | 2.0 | 8.0 | 0.00 | 0.00 | 0.00 | 73 | 1017.7 |
| 20260902130521 | 79 | 184 | 4.0 | 8.0 | 0.00 | 0.00 | 0.00 | 72 | 1017.7 |
| 20260902130421 | 79 | 150 | 2.0 | 8.0 | 0.00 | 0.00 | 0.00 | 73 | 1017.7 |
| 20260902130321 | 79 | 174 | 4.0 | 8.0 | 0.00 | 0.00 | 0.00 | 73 | 1017.7 |
| 20260902130221 | 79 | 173 | 3.0 | 8.0 | 0.00 | 0.00 | 0.00 | 73 | 1017.7 |
| 20260902130121 | 79 | 60 | 1.0 | 8.0 | 0.00 | 0.00 | 0.00 | 74 | 1017.7 |
| 20260902130021 | 79 | 222 | 2.0 | 8.0 | 0.00 | 0.00 | 0.00 | 74 | 1017.7 |
| 20260902125921 | 79 | 179 | 5.0 | 8.0 | 0.00 | 0.00 | 0.00 | 74 | 1017.7 |
| 20260902125821 | 79 | 203 | 2.0 | 7.0 | 0.00 | 0.00 | 0.00 | 75 | 1017.7 |
| 20260902125721 | 79 | 142 | 2.0 | 7.0 | 0.00 | 0.00 | 0.00 | 75 | 1017.7 |
| 20260902125621 | 78 | 221 | 1.0 | 7.0 | 0.00 | 0.00 | 0.00 | 75 | 1017.7 |
| 20260902125521 | 78 | 231 | 2.0 | 7.0 | 0.00 | 0.00 | 0.00 | 75 | 1017.7 |
| 20260902125421 | 78 | 167 | 2.0 | 7.0 | 0.00 | 0.00 | 0.00 | 75 | 1017.7 |
| 20260902125321 | 78 | 205 | 4.0 | 7.0 | 0.00 | 0.00 | 0.00 | 75 | 1017.7 |
| 20260902125221 | 78 | 163 | 3.0 | 7.0 | 0.00 | 0.00 | 0.00 | 76 | 1017.3 |
| 20260902125121 | 78 | 166 | 2.0 | 7.0 | 0.00 | 0.00 | 0.00 | 76 | 1017.3 |
| 20260902125021 | 78 | 158 | 2.0 | 8.0 | 0.00 | 0.00 | 0.00 | 76 | 1017.7 |
| 20260902124921 | 78 | 217 | 3.0 | 8.0 | 0.00 | 0.00 | 0.00 | 76 | 1017.7 |
| 20260902124821 | 78 | 205 | 3.0 | 8.0 | 0.00 | 0.00 | 0.00 | 76 | 1017.7 |
| 20260902124721 | 78 | 215 | 4.0 | 8.0 | 0.00 | 0.00 | 0.00 | 76 | 1017.7 |
| 20260902124621 | 78 | 194 | 5.0 | 8.0 | 0.00 | 0.00 | 0.00 | 76 | 1017.7 |
| 20260902124521 | 78 | 204 | 3.0 | 8.0 | 0.00 | 0.00 | 0.00 | 77 | 1017.7 |
| 20260902124421 | 77 | 208 | 4.0 | 8.0 | 0.00 | 0.00 | 0.00 | 77 | 1017.7 |
| 20260902124321 | 77 | 187 | 3.0 | 8.0 | 0.00 | 0.00 | 0.00 | 77 | 1017.7 |
| 20260902124221 | 77 | 222 | 4.0 | 8.0 | 0.00 | 0.00 | 0.00 | 77 | 1017.7 |
| 20260902124121 | 77 | 186 | 6.0 | 8.0 | 0.00 | 0.00 | 0.00 | 77 | 1017.7 |
| 20260902124021 | 77 | 208 | 3.0 | 6.0 | 0.00 | 0.00 | 0.00 | 78 | 1017.3 |
| 20260902123921 | 77 | 177 | 4.0 | 6.0 | 0.00 | 0.00 | 0.00 | 78 | 1017.3 |
| 20260902123821 | 77 | 195 | 3.0 | 6.0 | 0.00 | 0.00 | 0.00 | 78 | 1017.7 |
| 20260902123721 | 77 | 197 | 3.0 | 6.0 | 0.00 | 0.00 | 0.00 | 78 | 1017.7 |
| 20260902123621 | 77 | 181 | 3.0 | 6.0 | 0.00 | 0.00 | 0.00 | 78 | 1017.7 |
| 20260902123521 | 77 | 198 | 4.0 | 6.0 | 0.00 | 0.00 | 0.00 | 78 | 1017.7 |
| 20260902123421 | 77 | 184 | 3.0 | 6.0 | 0.00 | 0.00 | 0.00 | 78 | 1017.7 |
| 20260902123321 | 77 | 201 | 4.0 | 6.0 | 0.00 | 0.00 | 0.00 | 78 | 1017.3 |
| 20260902123221 | 77 | 218 | 4.0 | 6.0 | 0.00 | 0.00 | 0.00 | 79 | 1017.7 |
| 20260902123121 | 77 | 242 | 4.0 | 6.0 | 0.00 | 0.00 | 0.00 | 79 | 1017.7 |
| 20260902123021 | 77 | 204 | 4.0 | 6.0 | 0.00 | 0.00 | 0.00 | 79 | 1017.3 |
| 20260902122921 | 77 | 208 | 3.0 | 6.0 | 0.00 | 0.00 | 0.00 | 79 | 1017.7 |
| 20260902122821 | 77 | 208 | 3.0 | 6.0 | 0.00 | 0.00 | 0.00 | 79 | 1017.7 |
| 20260902122721 | 77 | 225 | 3.0 | 6.0 | 0.00 | 0.00 | 0.00 | 79 | 1017.7 |
| 20260902122621 | 77 | 194 | 1.0 | 6.0 | 0.00 | 0.00 | 0.00 | 80 | 1017.3 |
| 20260902122521 | 77 | 205 | 4.0 | 6.0 | 0.00 | 0.00 | 0.00 | 80 | 1017.7 |
| 20260902122421 | 76 | 207 | 3.0 | 6.0 | 0.00 | 0.00 | 0.00 | 80 | 1017.3 |
| 20260902122321 | 76 | 184 | 2.0 | 6.0 | 0.00 | 0.00 | 0.00 | 80 | 1017.7 |
| 20260902122221 | 76 | 167 | 4.0 | 6.0 | 0.00 | 0.00 | 0.00 | 80 | 1017.3 |
| 20260902122121 | 76 | 169 | 4.0 | 6.0 | 0.00 | 0.00 | 0.00 | 80 | 1017.3 |
| 20260902122021 | 76 | 186 | 4.0 | 6.0 | 0.00 | 0.00 | 0.00 | 80 | 1017.3 |
| 20260902121921 | 76 | 201 | 4.0 | 6.0 | 0.00 | 0.00 | 0.00 | 80 | 1017.3 |
| 20260902121821 | 76 | 203 | 3.0 | 6.0 | 0.00 | 0.00 | 0.00 | 80 | 1017.3 |
| 20260902121721 | 76 | 198 | 3.0 | 6.0 | 0.00 | 0.00 | 0.00 | 80 | 1017.3 |
| 20260902121621 | 76 | 166 | 3.0 | 6.0 | 0.00 | 0.00 | 0.00 | 80 | 1017.3 |
| 20260902121521 | 76 | 136 | 2.0 | 6.0 | 0.00 | 0.00 | 0.00 | 80 | 1017.3 |
| 20260902121421 | 76 | 195 | 2.0 | 6.0 | 0.00 | 0.00 | 0.00 | 81 | 1017.3 |
| 20260902121321 | 76 | 173 | 2.0 | 6.0 | 0.00 | 0.00 | 0.00 | 81 | 1017.3 |
| 20260902121221 | 76 | 190 | 4.0 | 7.0 | 0.00 | 0.00 | 0.00 | 81 | 1017.3 |
| 20260902121121 | 76 | 215 | 4.0 | 7.0 | 0.00 | 0.00 | 0.00 | 81 | 1017.3 |
| 20260902121021 | 76 | 205 | 5.0 | 7.0 | 0.00 | 0.00 | 0.00 | 81 | 1017.3 |
| 20260902120921 | 76 | 181 | 3.0 | 7.0 | 0.00 | 0.00 | 0.00 | 81 | 1017.3 |
| 20260902120821 | 76 | 195 | 3.0 | 7.0 | 0.00 | 0.00 | 0.00 | 81 | 1017.3 |
| 20260902120721 | 76 | 187 | 2.0 | 7.0 | 0.00 | 0.00 | 0.00 | 81 | 1017.3 |
| 20260902120621 | 76 | 198 | 3.0 | 7.0 | 0.00 | 0.00 | 0.00 | 81 | 1017.3 |
| 20260902120521 | 76 | 187 | 4.0 | 7.0 | 0.00 | 0.00 | 0.00 | 81 | 1017.3 |
| 20260902120421 | 76 | 204 | 4.0 | 7.0 | 0.00 | 0.00 | 0.00 | 81 | 1017.3 |
| 20260902120321 | 76 | 180 | 4.0 | 7.0 | 0.00 | 0.00 | 0.00 | 81 | 1017.3 |
| 20260902120221 | 76 | 193 | 3.0 | 6.0 | 0.00 | 0.00 | 0.00 | 81 | 1017.3 |
| 20260902120121 | 76 | 231 | 4.0 | 6.0 | 0.00 | 0.00 | 0.00 | 82 | 1017.3 |
| 20260902120021 | 76 | 201 | 2.0 | 5.0 | 0.00 | 0.00 | 0.00 | 82 | 1017.3 |
| 20260902115921 | 76 | 201 | 2.0 | 5.0 | 0.00 | 0.00 | 0.00 | 82 | 1017.3 |
| 20260902115821 | 76 | 243 | 2.0 | 5.0 | 0.00 | 0.00 | 0.00 | 82 | 1017.3 |
| 20260902115721 | 76 | 187 | 2.0 | 5.0 | 0.00 | 0.00 | 0.00 | 82 | 1017.3 |
| 20260902115621 | 75 | 212 | 3.0 | 5.0 | 0.00 | 0.00 | 0.00 | 82 | 1017.3 |
| 20260902115521 | 75 | 194 | 4.0 | 5.0 | 0.00 | 0.00 | 0.00 | 82 | 1017.3 |
| 20260902115421 | 76 | 174 | 3.0 | 5.0 | 0.00 | 0.00 | 0.00 | 82 | 1017.3 |
| 20260902115321 | 75 | 210 | 3.0 | 5.0 | 0.00 | 0.00 | 0.00 | 82 | 1017.3 |
| 20260902115221 | 75 | 221 | 2.0 | 5.0 | 0.00 | 0.00 | 0.00 | 82 | 1017.3 |
| 20260902115121 | 75 | 186 | 3.0 | 5.0 | 0.00 | 0.00 | 0.00 | 82 | 1017.3 |
| 20260902115021 | 75 | 184 | 2.0 | 5.0 | 0.00 | 0.00 | 0.00 | 82 | 1017.3 |
| 20260902114921 | 75 | 177 | 2.0 | 5.0 | 0.00 | 0.00 | 0.00 | 82 | 1017.3 |
| 20260902114821 | 75 | 205 | 2.0 | 5.0 | 0.00 | 0.00 | 0.00 | 82 | 1017.3 |
| 20260902114721 | 75 | 153 | 3.0 | 5.0 | 0.00 | 0.00 | 0.00 | 82 | 1017.3 |
| 20260902114621 | 75 | 210 | 3.0 | 6.0 | 0.00 | 0.00 | 0.00 | 82 | 1017.3 |
| 20260902114521 | 75 | 162 | 3.0 | 6.0 | 0.00 | 0.00 | 0.00 | 82 | 1017.3 |
| 20260902114421 | 75 | 111 | 2.0 | 6.0 | 0.00 | 0.00 | 0.00 | 82 | 1017.3 |
| 20260902114321 | 75 | 205 | 2.0 | 6.0 | 0.00 | 0.00 | 0.00 | 82 | 1017.3 |
| 20260902114221 | 75 | 233 | 4.0 | 6.0 | 0.00 | 0.00 | 0.00 | 82 | 1017.3 |
| 20260902114121 | 75 | 221 | 3.0 | 6.0 | 0.00 | 0.00 | 0.00 | 82 | 1017.3 |
| 20260902114021 | 75 | 203 | 3.0 | 6.0 | 0.00 | 0.00 | 0.00 | 82 | 1017.3 |
| 20260902113921 | 75 | 179 | 2.0 | 6.0 | 0.00 | 0.00 | 0.00 | 82 | 1017.3 |
| 20260902113821 | 75 | 205 | 3.0 | 6.0 | 0.00 | 0.00 | 0.00 | 83 | 1017.3 |
| 20260902113721 | 75 | 204 | 4.0 | 6.0 | 0.00 | 0.00 | 0.00 | 83 | 1017.3 |
| 20260902113621 | 75 | 158 | 4.0 | 5.0 | 0.00 | 0.00 | 0.00 | 83 | 1017.0 |
| 20260902113521 | 75 | 201 | 2.0 | 5.0 | 0.00 | 0.00 | 0.00 | 83 | 1017.3 |
| 20260902113421 | 75 | 188 | 3.0 | 5.0 | 0.00 | 0.00 | 0.00 | 83 | 1017.0 |
| 20260902113321 | 75 | 194 | 3.0 | 5.0 | 0.00 | 0.00 | 0.00 | 83 | 1017.0 |
| 20260902113221 | 75 | 184 | 3.0 | 5.0 | 0.00 | 0.00 | 0.00 | 83 | 1017.0 |
| 20260902113121 | 75 | 197 | 3.0 | 5.0 | 0.00 | 0.00 | 0.00 | 83 | 1017.0 |
| 20260902113021 | 75 | 163 | 2.0 | 5.0 | 0.00 | 0.00 | 0.00 | 83 | 1017.0 |
| 20260902112921 | 75 | 186 | 4.0 | 5.0 | 0.00 | 0.00 | 0.00 | 83 | 1017.0 |
| 20260902112821 | 75 | 205 | 3.0 | 5.0 | 0.00 | 0.00 | 0.00 | 83 | 1017.0 |
| 20260902112721 | 75 | 208 | 3.0 | 5.0 | 0.00 | 0.00 | 0.00 | 83 | 1017.0 |
| 20260902112621 | 75 | 176 | 2.0 | 5.0 | 0.00 | 0.00 | 0.00 | 83 | 1017.0 |
| 20260902112521 | 75 | 212 | 4.0 | 5.0 | 0.00 | 0.00 | 0.00 | 83 | 1017.0 |
| 20260902112421 | 75 | 205 | 2.0 | 5.0 | 0.00 | 0.00 | 0.00 | 83 | 1017.0 |
| 20260902112321 | 75 | 198 | 3.0 | 5.0 | 0.00 | 0.00 | 0.00 | 83 | 1017.0 |
| 20260902112221 | 75 | 166 | 2.0 | 5.0 | 0.00 | 0.00 | 0.00 | 83 | 1017.0 |
| 20260902112121 | 75 | 170 | 2.0 | 5.0 | 0.00 | 0.00 | 0.00 | 83 | 1017.0 |
| 20260902112021 | 75 | 190 | 2.0 | 5.0 | 0.00 | 0.00 | 0.00 | 83 | 1017.0 |
| 20260902111921 | 75 | 142 | 1.0 | 5.0 | 0.00 | 0.00 | 0.00 | 83 | 1017.0 |
| 20260902111821 | 75 | 198 | 4.0 | 7.0 | 0.00 | 0.00 | 0.00 | 83 | 1017.0 |
| 20260902111721 | 75 | 197 | 3.0 | 7.0 | 0.00 | 0.00 | 0.00 | 83 | 1017.0 |
| 20260902111621 | 75 | 184 | 4.0 | 7.0 | 0.00 | 0.00 | 0.00 | 83 | 1017.0 |
| 20260902111521 | 75 | 134 | 3.0 | 7.0 | 0.00 | 0.00 | 0.00 | 83 | 1017.0 |
| 20260902111421 | 75 | 148 | 2.0 | 7.0 | 0.00 | 0.00 | 0.00 | 82 | 1017.0 |
| 20260902111321 | 75 | 145 | 3.0 | 7.0 | 0.00 | 0.00 | 0.00 | 83 | 1017.0 |
| 20260902111221 | 75 | 193 | 3.0 | 7.0 | 0.00 | 0.00 | 0.00 | 83 | 1017.0 |
| 20260902111121 | 75 | 211 | 2.0 | 7.0 | 0.00 | 0.00 | 0.00 | 82 | 1017.0 |
| 20260902111021 | 75 | 191 | 3.0 | 7.0 | 0.00 | 0.00 | 0.00 | 83 | 1017.0 |
| 20260902110921 | 75 | 179 | 5.0 | 7.0 | 0.00 | 0.00 | 0.00 | 83 | 1017.0 |
| 20260902110821 | 75 | 172 | 4.0 | 6.0 | 0.00 | 0.00 | 0.00 | 82 | 1017.0 |
| 20260902110721 | 75 | 210 | 4.0 | 5.0 | 0.00 | 0.00 | 0.00 | 82 | 1017.0 |
| 20260902110621 | 75 | 193 | 3.0 | 5.0 | 0.00 | 0.00 | 0.00 | 82 | 1017.0 |
| 20260902110521 | 75 | 218 | 0.0 | 5.0 | 0.00 | 0.00 | 0.00 | 82 | 1017.0 |
| 20260902110421 | 75 | 218 | 1.0 | 5.0 | 0.00 | 0.00 | 0.00 | 82 | 1017.0 |
| 20260902110321 | 75 | 173 | 2.0 | 5.0 | 0.00 | 0.00 | 0.00 | 82 | 1017.0 |
| 20260902110221 | 75 | 166 | 2.0 | 5.0 | 0.00 | 0.00 | 0.00 | 82 | 1017.0 |
| 20260902110121 | 75 | 172 | 3.0 | 5.0 | 0.00 | 0.00 | 0.00 | 82 | 1017.0 |
| 20260902110021 | 75 | 152 | 2.0 | 5.0 | 0.00 | 0.00 | 0.00 | 82 | 1017.0 |
| 20260902105921 | 75 | 211 | 1.0 | 5.0 | 0.00 | 0.00 | 0.00 | 82 | 1017.0 |
| 20260902105821 | 75 | 214 | 3.0 | 5.0 | 0.00 | 0.00 | 0.00 | 82 | 1017.0 |
| 20260902105721 | 75 | 193 | 1.0 | 5.0 | 0.00 | 0.00 | 0.00 | 82 | 1017.0 |
| 20260902105621 | 75 | 179 | 1.0 | 5.0 | 0.00 | 0.00 | 0.00 | 82 | 1017.0 |
| 20260902105521 | 75 | 256 | 3.0 | 5.0 | 0.00 | 0.00 | 0.00 | 82 | 1017.0 |
| 20260902105421 | 75 | 169 | 2.0 | 5.0 | 0.00 | 0.00 | 0.00 | 82 | 1017.0 |
| 20260902105321 | 75 | 138 | 2.0 | 7.0 | 0.00 | 0.00 | 0.00 | 82 | 1017.0 |
| 20260902105221 | 75 | 197 | 4.0 | 7.0 | 0.00 | 0.00 | 0.00 | 82 | 1017.0 |
| 20260902105121 | 75 | 210 | 4.0 | 7.0 | 0.00 | 0.00 | 0.00 | 82 | 1017.0 |
| 20260902105021 | 75 | 194 | 3.0 | 7.0 | 0.00 | 0.00 | 0.00 | 82 | 1017.0 |
| 20260902104921 | 75 | 203 | 4.0 | 7.0 | 0.00 | 0.00 | 0.00 | 82 | 1017.0 |
| 20260902104821 | 75 | 187 | 2.0 | 7.0 | 0.00 | 0.00 | 0.00 | 82 | 1017.0 |
| 20260902104721 | 75 | 245 | 1.0 | 7.0 | 0.00 | 0.00 | 0.00 | 82 | 1017.0 |
| 20260902104621 | 75 | 212 | 3.0 | 7.0 | 0.00 | 0.00 | 0.00 | 82 | 1017.0 |
| 20260902104521 | 75 | 190 | 2.0 | 7.0 | 0.00 | 0.00 | 0.00 | 82 | 1017.0 |
| 20260902104421 | 75 | 203 | 5.0 | 7.0 | 0.00 | 0.00 | 0.00 | 82 | 1017.0 |
| 20260902104321 | 75 | 129 | 2.0 | 6.0 | 0.00 | 0.00 | 0.00 | 82 | 1017.0 |
| 20260902104221 | 75 | 163 | 4.0 | 6.0 | 0.00 | 0.00 | 0.00 | 82 | 1017.0 |
| 20260902104121 | 75 | 188 | 3.0 | 6.0 | 0.00 | 0.00 | 0.00 | 82 | 1017.0 |
| 20260902104021 | 75 | 187 | 2.0 | 6.0 | 0.00 | 0.00 | 0.00 | 82 | 1017.0 |
| 20260902103921 | 75 | 165 | 3.0 | 6.0 | 0.00 | 0.00 | 0.00 | 82 | 1017.0 |
| 20260902103821 | 75 | 215 | 2.0 | 6.0 | 0.00 | 0.00 | 0.00 | 82 | 1017.0 |
| 20260902103721 | 75 | 191 | 3.0 | 6.0 | 0.00 | 0.00 | 0.00 | 83 | 1017.0 |
| 20260902103621 | 75 | 232 | 3.0 | 6.0 | 0.00 | 0.00 | 0.00 | 82 | 1017.0 |
| 20260902103521 | 75 | 148 | 3.0 | 6.0 | 0.00 | 0.00 | 0.00 | 82 | 1017.0 |
| 20260902103421 | 75 | 152 | 3.0 | 6.0 | 0.00 | 0.00 | 0.00 | 82 | 1017.0 |
| 20260902103321 | 75 | 201 | 3.0 | 6.0 | 0.00 | 0.00 | 0.00 | 82 | 1017.0 |
| 20260902103221 | 75 | 128 | 1.0 | 6.0 | 0.00 | 0.00 | 0.00 | 82 | 1017.0 |
| 20260902103121 | 75 | 280 | 2.0 | 6.0 | 0.00 | 0.00 | 0.00 | 82 | 1017.0 |
| 20260902103021 | 75 | 219 | 2.0 | 8.0 | 0.00 | 0.00 | 0.00 | 82 | 1016.6 |
| 20260902102921 | 75 | 139 | 4.0 | 8.0 | 0.00 | 0.00 | 0.00 | 82 | 1016.6 |
| 20260902102821 | 75 | 212 | 3.0 | 8.0 | 0.00 | 0.00 | 0.00 | 82 | 1016.6 |
| 20260902102721 | 75 | 150 | 2.0 | 8.0 | 0.00 | 0.00 | 0.00 | 82 | 1017.0 |
| 20260902102621 | 75 | 153 | 1.0 | 8.0 | 0.00 | 0.00 | 0.00 | 82 | 1016.6 |
| 20260902102521 | 75 | 156 | 2.0 | 8.0 | 0.00 | 0.00 | 0.00 | 82 | 1016.6 |
| 20260902102421 | 75 | 204 | 1.0 | 8.0 | 0.00 | 0.00 | 0.00 | 82 | 1016.6 |
| 20260902102321 | 75 | 158 | 3.0 | 8.0 | 0.00 | 0.00 | 0.00 | 82 | 1016.6 |
| 20260902102221 | 75 | 187 | 4.0 | 8.0 | 0.00 | 0.00 | 0.00 | 82 | 1016.6 |
| 20260902102121 | 75 | 181 | 4.0 | 8.0 | 0.00 | 0.00 | 0.00 | 82 | 1016.6 |
| 20260902102021 | 75 | 205 | 3.0 | 6.0 | 0.00 | 0.00 | 0.00 | 82 | 1016.6 |
| 20260902101921 | 75 | 188 | 4.0 | 6.0 | 0.00 | 0.00 | 0.00 | 82 | 1016.6 |
| 20260902101821 | 75 | 198 | 3.0 | 6.0 | 0.00 | 0.00 | 0.00 | 82 | 1016.6 |
| 20260902101721 | 75 | 156 | 2.0 | 7.0 | 0.00 | 0.00 | 0.00 | 82 | 1016.6 |
| 20260902101621 | 75 | 162 | 4.0 | 7.0 | 0.00 | 0.00 | 0.00 | 82 | 1016.6 |
| 20260902101521 | 76 | 155 | 1.0 | 7.0 | 0.00 | 0.00 | 0.00 | 82 | 1017.0 |
| 20260902101421 | 75 | 163 | 2.0 | 7.0 | 0.00 | 0.00 | 0.00 | 82 | 1016.6 |
| 20260902101321 | 75 | 201 | 4.0 | 7.0 | 0.00 | 0.00 | 0.00 | 82 | 1016.6 |
| 20260902101221 | 76 | 155 | 2.0 | 7.0 | 0.00 | 0.00 | 0.00 | 82 | 1016.6 |
| 20260902101121 | 76 | 203 | 3.0 | 7.0 | 0.00 | 0.00 | 0.00 | 82 | 1016.6 |
| 20260902101021 | 75 | 200 | 4.0 | 7.0 | 0.00 | 0.00 | 0.00 | 82 | 1016.6 |
| 20260902100921 | 75 | 167 | 4.0 | 7.0 | 0.00 | 0.00 | 0.00 | 82 | 1016.6 |
| 20260902100821 | 76 | 181 | 3.0 | 7.0 | 0.00 | 0.00 | 0.00 | 82 | 1016.6 |
| 20260902100721 | 76 | 190 | 2.0 | 6.0 | 0.00 | 0.00 | 0.00 | 82 | 1016.6 |
| 20260902100621 | 76 | 188 | 2.0 | 6.0 | 0.00 | 0.00 | 0.00 | 82 | 1016.6 |
| 20260902100521 | 76 | 215 | 3.0 | 6.0 | 0.00 | 0.00 | 0.00 | 82 | 1016.6 |
| 20260902100421 | 76 | 211 | 3.0 | 6.0 | 0.00 | 0.00 | 0.00 | 82 | 1016.6 |
| 20260902100321 | 76 | 193 | 3.0 | 6.0 | 0.00 | 0.00 | 0.00 | 82 | 1016.6 |
| 20260902100221 | 76 | 183 | 3.0 | 6.0 | 0.00 | 0.00 | 0.00 | 82 | 1016.6 |
| 20260902100121 | 76 | 225 | 3.0 | 6.0 | 0.00 | 0.00 | 0.00 | 82 | 1016.6 |
| 20260902100021 | 76 | 190 | 3.0 | 6.0 | 0.00 | 0.00 | 0.00 | 82 | 1016.6 |
| 20260902095921 | 76 | 181 | 3.0 | 6.0 | 0.00 | 0.00 | 0.00 | 82 | 1016.6 |
| 20260902095821 | 76 | 138 | 3.0 | 6.0 | 0.00 | 0.00 | 0.00 | 82 | 1016.6 |
| 20260902095721 | 76 | 195 | 4.0 | 6.0 | 0.00 | 0.00 | 0.00 | 82 | 1016.6 |
| 20260902095621 | 76 | 184 | 3.0 | 6.0 | 0.00 | 0.00 | 0.00 | 82 | 1017.0 |
| 20260902095521 | 76 | 173 | 3.0 | 6.0 | 0.00 | 0.00 | 0.00 | 82 | 1016.6 |
| 20260902095421 | 76 | 197 | 3.0 | 5.0 | 0.00 | 0.00 | 0.00 | 82 | 1016.6 |
| 20260902095321 | 76 | 176 | 4.0 | 5.0 | 0.00 | 0.00 | 0.00 | 82 | 1016.6 |
| 20260902095221 | 76 | 135 | 4.0 | 5.0 | 0.00 | 0.00 | 0.00 | 82 | 1016.6 |
| 20260902095121 | 76 | 149 | 3.0 | 5.0 | 0.00 | 0.00 | 0.00 | 82 | 1017.0 |
| 20260902095021 | 76 | 190 | 2.0 | 5.0 | 0.00 | 0.00 | 0.00 | 82 | 1016.6 |
| 20260902094921 | 76 | 162 | 2.0 | 5.0 | 0.00 | 0.00 | 0.00 | 82 | 1016.6 |
| 20260902094821 | 76 | 204 | 2.0 | 5.0 | 0.00 | 0.00 | 0.00 | 82 | 1016.6 |
| 20260902094721 | 76 | 205 | 2.0 | 5.0 | 0.00 | 0.00 | 0.00 | 82 | 1016.6 |
| 20260902094621 | 76 | 187 | 3.0 | 5.0 | 0.00 | 0.00 | 0.00 | 82 | 1016.6 |
| 20260902094521 | 76 | 181 | 3.0 | 5.0 | 0.00 | 0.00 | 0.00 | 82 | 1016.6 |
| 20260902094421 | 76 | 208 | 3.0 | 6.0 | 0.00 | 0.00 | 0.00 | 82 | 1016.6 |
| 20260902094321 | 76 | 152 | 2.0 | 6.0 | 0.00 | 0.00 | 0.00 | 81 | 1016.6 |
| 20260902094221 | 76 | 181 | 3.0 | 6.0 | 0.00 | 0.00 | 0.00 | 82 | 1016.6 |
| 20260902094121 | 76 | 188 | 3.0 | 6.0 | 0.00 | 0.00 | 0.00 | 81 | 1016.6 |
| 20260902094021 | 76 | 236 | 3.0 | 6.0 | 0.00 | 0.00 | 0.00 | 81 | 1016.6 |
| 20260902093921 | 76 | 149 | 3.0 | 6.0 | 0.00 | 0.00 | 0.00 | 82 | 1016.6 |
| 20260902093821 | 76 | 193 | 2.0 | 6.0 | 0.00 | 0.00 | 0.00 | 81 | 1016.6 |
| 20260902093721 | 76 | 186 | 2.0 | 6.0 | 0.00 | 0.00 | 0.00 | 82 | 1016.6 |
| 20260902093621 | 76 | 211 | 3.0 | 6.0 | 0.00 | 0.00 | 0.00 | 82 | 1016.6 |
| 20260902093521 | 76 | 169 | 4.0 | 6.0 | 0.00 | 0.00 | 0.00 | 82 | 1016.6 |
| 20260902093422 | 76 | 131 | 3.0 | 6.0 | 0.00 | 0.00 | 0.00 | 82 | 1016.6 |
| 20260902093321 | 76 | 174 | 3.0 | 6.0 | 0.00 | 0.00 | 0.00 | 82 | 1016.6 |
| 20260902093221 | 76 | 153 | 4.0 | 6.0 | 0.00 | 0.00 | 0.00 | 82 | 1016.6 |
| 20260902093121 | 76 | 198 | 3.0 | 6.0 | 0.00 | 0.00 | 0.00 | 82 | 1016.6 |
| 20260902093021 | 76 | 191 | 3.0 | 6.0 | 0.00 | 0.00 | 0.00 | 82 | 1016.6 |
| 20260902092921 | 76 | 201 | 3.0 | 6.0 | 0.00 | 0.00 | 0.00 | 82 | 1016.6 |
| 20260902092821 | 76 | 197 | 4.0 | 6.0 | 0.00 | 0.00 | 0.00 | 82 | 1016.6 |
| 20260902092721 | 76 | 186 | 3.0 | 5.0 | 0.00 | 0.00 | 0.00 | 82 | 1016.6 |
| 20260902092621 | 76 | 188 | 2.0 | 5.0 | 0.00 | 0.00 | 0.00 | 82 | 1016.6 |
| 20260902092521 | 76 | 155 | 3.0 | 5.0 | 0.00 | 0.00 | 0.00 | 82 | 1016.6 |
| 20260902092421 | 76 | 188 | 2.0 | 5.0 | 0.00 | 0.00 | 0.00 | 81 | 1017.0 |
| 20260902092321 | 76 | 173 | 3.0 | 5.0 | 0.00 | 0.00 | 0.00 | 82 | 1017.0 |
| 20260902092221 | 76 | 203 | 3.0 | 4.0 | 0.00 | 0.00 | 0.00 | 81 | 1017.0 |
| 20260902092121 | 76 | 198 | 3.0 | 3.0 | 0.00 | 0.00 | 0.00 | 81 | 1017.0 |
| 20260902092021 | 76 | 174 | 3.0 | 3.0 | 0.00 | 0.00 | 0.00 | 81 | 1017.0 |
| 20260902091921 | 76 | 179 | 2.0 | 3.0 | 0.00 | 0.00 | 0.00 | 81 | 1017.0 |
| 20260902091821 | 76 | 181 | 2.0 | 3.0 | 0.00 | 0.00 | 0.00 | 81 | 1016.6 |
| 20260902091721 | 76 | 128 | 2.0 | 3.0 | 0.00 | 0.00 | 0.00 | 81 | 1016.6 |
| 20260902091621 | 76 | 188 | 2.0 | 3.0 | 0.00 | 0.00 | 0.00 | 81 | 1016.6 |
| 20260902091521 | 76 | 170 | 2.0 | 3.0 | 0.00 | 0.00 | 0.00 | 81 | 1016.6 |
| 20260902091421 | 76 | 159 | 2.0 | 3.0 | 0.00 | 0.00 | 0.00 | 81 | 1016.6 |
| 20260902091321 | 76 | 197 | 2.0 | 3.0 | 0.00 | 0.00 | 0.00 | 81 | 1016.6 |
| 20260902091221 | 76 | 167 | 1.0 | 3.0 | 0.00 | 0.00 | 0.00 | 81 | 1016.6 |
| 20260902091121 | 76 | 146 | 1.0 | 3.0 | 0.00 | 0.00 | 0.00 | 80 | 1016.6 |
| 20260902091021 | 76 | 158 | 1.0 | 3.0 | 0.00 | 0.00 | 0.00 | 81 | 1016.6 |
| 20260902090921 | 76 | 163 | 1.0 | 3.0 | 0.00 | 0.00 | 0.00 | 80 | 1016.6 |
| 20260902090821 | 77 | 135 | 2.0 | 3.0 | 0.00 | 0.00 | 0.00 | 80 | 1016.6 |
| 20260902090721 | 77 | 145 | 2.0 | 3.0 | 0.00 | 0.00 | 0.00 | 80 | 1016.6 |
| 20260902090621 | 77 | 139 | 2.0 | 3.0 | 0.00 | 0.00 | 0.00 | 80 | 1016.6 |
| 20260902090521 | 77 | 145 | 2.0 | 3.0 | 0.00 | 0.00 | 0.00 | 80 | 1016.6 |
| 20260902090421 | 77 | 145 | 1.0 | 3.0 | 0.00 | 0.00 | 0.00 | 80 | 1016.6 |
| 20260902090321 | 77 | 152 | 2.0 | 3.0 | 0.00 | 0.00 | 0.00 | 80 | 1016.6 |
| 20260902090221 | 77 | 128 | 1.0 | 3.0 | 0.00 | 0.00 | 0.00 | 80 | 1016.6 |
| 20260902090121 | 77 | 83 | 1.0 | 3.0 | 0.00 | 0.00 | 0.00 | 80 | 1016.6 |
| 20260902090021 | 77 | 122 | 1.0 | 3.0 | 0.00 | 0.00 | 0.00 | 79 | 1016.6 |
| 20260902085921 | 77 | 120 | 2.0 | 3.0 | 0.00 | 0.00 | 0.00 | 79 | 1016.6 |
| 20260902085821 | 77 | 181 | 2.0 | 3.0 | 0.00 | 0.00 | 0.00 | 79 | 1016.6 |
| 20260902085721 | 77 | 150 | 0.0 | 2.0 | 0.00 | 0.00 | 0.00 | 79 | 1016.6 |
| 20260902085621 | 77 | 101 | 0.0 | 2.0 | 0.00 | 0.00 | 0.00 | 79 | 1016.6 |
| 20260902085521 | 77 | 101 | 0.0 | 2.0 | 0.00 | 0.00 | 0.00 | 79 | 1016.6 |
| 20260902085421 | 77 | 101 | 0.0 | 3.0 | 0.00 | 0.00 | 0.00 | 79 | 1016.6 |
| 20260902085321 | 77 | 101 | 0.0 | 3.0 | 0.00 | 0.00 | 0.00 | 79 | 1016.6 |
| 20260902085221 | 77 | 101 | 0.0 | 3.0 | 0.00 | 0.00 | 0.00 | 79 | 1016.6 |
| 20260902085121 | 77 | 117 | 0.0 | 3.0 | 0.00 | 0.00 | 0.00 | 79 | 1016.6 |
| 20260902085021 | 77 | 111 | 0.0 | 3.0 | 0.00 | 0.00 | 0.00 | 79 | 1016.6 |
| 20260902084921 | 77 | 117 | 0.0 | 3.0 | 0.00 | 0.00 | 0.00 | 79 | 1016.6 |
| 20260902084821 | 77 | 117 | 1.0 | 4.0 | 0.00 | 0.00 | 0.00 | 79 | 1016.6 |
| 20260902084721 | 77 | 146 | 1.0 | 4.0 | 0.00 | 0.00 | 0.00 | 79 | 1016.6 |
| 20260902084621 | 77 | 173 | 1.0 | 4.0 | 0.00 | 0.00 | 0.00 | 79 | 1016.6 |
| 20260902084521 | 77 | 165 | 2.0 | 4.0 | 0.00 | 0.00 | 0.00 | 79 | 1016.6 |
| 20260902084421 | 77 | 167 | 2.0 | 4.0 | 0.00 | 0.00 | 0.00 | 78 | 1016.6 |
| 20260902084321 | 77 | 208 | 2.0 | 4.0 | 0.00 | 0.00 | 0.00 | 79 | 1016.6 |
| 20260902084221 | 77 | 188 | 2.0 | 4.0 | 0.00 | 0.00 | 0.00 | 79 | 1016.6 |
| 20260902084121 | 77 | 124 | 0.0 | 4.0 | 0.00 | 0.00 | 0.00 | 78 | 1016.6 |
| 20260902084021 | 77 | 214 | 2.0 | 4.0 | 0.00 | 0.00 | 0.00 | 78 | 1016.6 |
| 20260902083921 | 77 | 172 | 2.0 | 4.0 | 0.00 | 0.00 | 0.00 | 78 | 1016.6 |
| 20260902083821 | 77 | 167 | 2.0 | 4.0 | 0.00 | 0.00 | 0.00 | 78 | 1016.6 |
| 20260902083721 | 77 | 212 | 2.0 | 4.0 | 0.00 | 0.00 | 0.00 | 78 | 1016.6 |
| 20260902083621 | 77 | 188 | 2.0 | 4.0 | 0.00 | 0.00 | 0.00 | 78 | 1016.6 |
| 20260902083521 | 77 | 184 | 3.0 | 4.0 | 0.00 | 0.00 | 0.00 | 78 | 1016.6 |
| 20260902083421 | 77 | 173 | 1.0 | 4.0 | 0.00 | 0.00 | 0.00 | 78 | 1016.6 |
| 20260902083321 | 77 | 166 | 1.0 | 4.0 | 0.00 | 0.00 | 0.00 | 78 | 1016.6 |
| 20260902083221 | 77 | 167 | 1.0 | 4.0 | 0.00 | 0.00 | 0.00 | 78 | 1016.6 |
| 20260902083121 | 78 | 159 | 1.0 | 4.0 | 0.00 | 0.00 | 0.00 | 78 | 1016.6 |
| 20260902083021 | 78 | 190 | 2.0 | 4.0 | 0.00 | 0.00 | 0.00 | 78 | 1016.6 |
| 20260902082921 | 78 | 193 | 3.0 | 4.0 | 0.00 | 0.00 | 0.00 | 78 | 1016.6 |
| 20260902082821 | 77 | 172 | 3.0 | 4.0 | 0.00 | 0.00 | 0.00 | 78 | 1016.6 |
| 20260902082721 | 78 | 176 | 3.0 | 4.0 | 0.00 | 0.00 | 0.00 | 78 | 1016.3 |
| 20260902082621 | 78 | 152 | 2.0 | 3.0 | 0.00 | 0.00 | 0.00 | 78 | 1016.3 |
| 20260902082521 | 78 | 162 | 3.0 | 3.0 | 0.00 | 0.00 | 0.00 | 78 | 1016.3 |
| 20260902082421 | 78 | 201 | 2.0 | 3.0 | 0.00 | 0.00 | 0.00 | 78 | 1016.3 |
| 20260902082321 | 78 | 174 | 2.0 | 3.0 | 0.00 | 0.00 | 0.00 | 78 | 1016.3 |
| 20260902082221 | 78 | 195 | 3.0 | 3.0 | 0.00 | 0.00 | 0.00 | 78 | 1016.3 |
| 20260902082121 | 78 | 153 | 2.0 | 3.0 | 0.00 | 0.00 | 0.00 | 78 | 1016.3 |
| 20260902082021 | 78 | 186 | 2.0 | 5.0 | 0.00 | 0.00 | 0.00 | 77 | 1016.3 |
| 20260902081921 | 78 | 191 | 1.0 | 5.0 | 0.00 | 0.00 | 0.00 | 77 | 1016.3 |
| 20260902081821 | 78 | 201 | 1.0 | 5.0 | 0.00 | 0.00 | 0.00 | 77 | 1016.3 |
| 20260902081721 | 78 | 159 | 2.0 | 5.0 | 0.00 | 0.00 | 0.00 | 77 | 1016.3 |
| 20260902081621 | 78 | 169 | 2.0 | 5.0 | 0.00 | 0.00 | 0.00 | 77 | 1016.3 |
| 20260902081521 | 78 | 166 | 2.0 | 5.0 | 0.00 | 0.00 | 0.00 | 77 | 1016.3 |
| 20260902081421 | 78 | 165 | 2.0 | 5.0 | 0.00 | 0.00 | 0.00 | 77 | 1016.3 |
| 20260902081321 | 78 | 159 | 2.0 | 5.0 | 0.00 | 0.00 | 0.00 | 77 | 1016.3 |
| 20260902081221 | 78 | 188 | 2.0 | 5.0 | 0.00 | 0.00 | 0.00 | 77 | 1016.6 |
| 20260902081121 | 78 | 211 | 3.0 | 5.0 | 0.00 | 0.00 | 0.00 | 77 | 1016.3 |
| 20260902081021 | 78 | 158 | 2.0 | 4.0 | 0.00 | 0.00 | 0.00 | 77 | 1016.3 |
| 20260902080921 | 78 | 200 | 3.0 | 4.0 | 0.00 | 0.00 | 0.00 | 77 | 1016.3 |
| 20260902080821 | 78 | 215 | 3.0 | 4.0 | 0.00 | 0.00 | 0.00 | 77 | 1016.3 |
| 20260902080721 | 78 | 163 | 3.0 | 4.0 | 0.00 | 0.00 | 0.00 | 77 | 1016.3 |
| 20260902080621 | 78 | 184 | 3.0 | 4.0 | 0.00 | 0.00 | 0.00 | 77 | 1016.3 |
| 20260902080521 | 78 | 173 | 2.0 | 4.0 | 0.00 | 0.00 | 0.00 | 77 | 1016.3 |
| 20260902080421 | 78 | 176 | 3.0 | 6.0 | 0.00 | 0.00 | 0.00 | 77 | 1016.3 |
| 20260902080321 | 78 | 179 | 2.0 | 6.0 | 0.00 | 0.00 | 0.00 | 77 | 1016.3 |
| 20260902080221 | 78 | 170 | 2.0 | 6.0 | 0.00 | 0.00 | 0.00 | 77 | 1016.3 |
| 20260902080121 | 78 | 200 | 2.0 | 6.0 | 0.00 | 0.00 | 0.00 | 77 | 1016.3 |
| 20260902080022 | 78 | 194 | 3.0 | 6.0 | 0.00 | 0.00 | 0.00 | 77 | 1016.3 |
| 20260902075921 | 78 | 174 | 3.0 | 6.0 | 0.00 | 0.00 | 0.00 | 77 | 1016.3 |
| 20260902075821 | 78 | 218 | 2.0 | 6.0 | 0.00 | 0.00 | 0.00 | 77 | 1016.3 |
| 20260902075721 | 78 | 167 | 2.0 | 6.0 | 0.00 | 0.00 | 0.00 | 77 | 1016.3 |
| 20260902075621 | 78 | 186 | 2.0 | 6.0 | 0.00 | 0.00 | 0.00 | 77 | 1016.3 |
| 20260902075521 | 78 | 233 | 3.0 | 6.0 | 0.00 | 0.00 | 0.00 | 77 | 1016.3 |
| 20260902075421 | 78 | 188 | 3.0 | 6.0 | 0.00 | 0.00 | 0.00 | 77 | 1016.3 |
| 20260902075321 | 78 | 193 | 3.0 | 5.0 | 0.00 | 0.00 | 0.00 | 77 | 1016.3 |
| 20260902075221 | 78 | 219 | 3.0 | 5.0 | 0.00 | 0.00 | 0.00 | 77 | 1016.3 |
| 20260902075121 | 78 | 201 | 3.0 | 5.0 | 0.00 | 0.00 | 0.00 | 77 | 1016.3 |
| 20260902075021 | 78 | 187 | 2.0 | 5.0 | 0.00 | 0.00 | 0.00 | 77 | 1016.3 |
| 20260902074921 | 78 | 195 | 3.0 | 5.0 | 0.00 | 0.00 | 0.00 | 77 | 1016.3 |
| 20260902074821 | 78 | 207 | 3.0 | 5.0 | 0.00 | 0.00 | 0.00 | 77 | 1016.3 |
| 20260902074721 | 78 | 152 | 3.0 | 6.0 | 0.00 | 0.00 | 0.00 | 77 | 1016.3 |
| 20260902074621 | 78 | 212 | 2.0 | 6.0 | 0.00 | 0.00 | 0.00 | 77 | 1016.3 |
| 20260902074521 | 78 | 188 | 3.0 | 6.0 | 0.00 | 0.00 | 0.00 | 77 | 1016.3 |
| 20260902074421 | 78 | 176 | 2.0 | 6.0 | 0.00 | 0.00 | 0.00 | 77 | 1016.3 |
| 20260902074321 | 78 | 197 | 3.0 | 6.0 | 0.00 | 0.00 | 0.00 | 77 | 1016.3 |
| 20260902074221 | 78 | 187 | 3.0 | 6.0 | 0.00 | 0.00 | 0.00 | 77 | 1016.3 |
| 20260902074121 | 78 | 174 | 3.0 | 6.0 | 0.00 | 0.00 | 0.00 | 77 | 1016.3 |
| 20260902074021 | 78 | 236 | 2.0 | 6.0 | 0.00 | 0.00 | 0.00 | 77 | 1016.3 |
| 20260902073921 | 78 | 132 | 3.0 | 6.0 | 0.00 | 0.00 | 0.00 | 77 | 1016.3 |
| 20260902073821 | 78 | 167 | 3.0 | 6.0 | 0.00 | 0.00 | 0.00 | 77 | 1016.3 |
| 20260902073721 | 78 | 233 | 3.0 | 6.0 | 0.00 | 0.00 | 0.00 | 77 | 1016.3 |
| 20260902073621 | 78 | 179 | 2.0 | 6.0 | 0.00 | 0.00 | 0.00 | 77 | 1016.3 |
| 20260902073521 | 78 | 210 | 2.0 | 6.0 | 0.00 | 0.00 | 0.00 | 77 | 1016.3 |
| 20260902073421 | 78 | 155 | 4.0 | 6.0 | 0.00 | 0.00 | 0.00 | 77 | 1016.3 |
| 20260902073321 | 78 | 203 | 2.0 | 5.0 | 0.00 | 0.00 | 0.00 | 77 | 1016.3 |
| 20260902073221 | 78 | 187 | 2.0 | 5.0 | 0.00 | 0.00 | 0.00 | 77 | 1016.3 |
| 20260902073121 | 78 | 155 | 3.0 | 5.0 | 0.00 | 0.00 | 0.00 | 77 | 1016.3 |
| 20260902073021 | 78 | 194 | 3.0 | 5.0 | 0.00 | 0.00 | 0.00 | 77 | 1016.3 |
| 20260902072921 | 78 | 148 | 2.0 | 5.0 | 0.00 | 0.00 | 0.00 | 77 | 1016.3 |
| 20260902072821 | 78 | 235 | 2.0 | 5.0 | 0.00 | 0.00 | 0.00 | 77 | 1016.3 |
| 20260902072721 | 78 | 195 | 3.0 | 5.0 | 0.00 | 0.00 | 0.00 | 77 | 1016.3 |
| 20260902072621 | 78 | 186 | 2.0 | 5.0 | 0.00 | 0.00 | 0.00 | 77 | 1016.3 |
| 20260902072521 | 78 | 197 | 3.0 | 5.0 | 0.00 | 0.00 | 0.00 | 77 | 1016.3 |
| 20260902072421 | 78 | 186 | 3.0 | 5.0 | 0.00 | 0.00 | 0.00 | 77 | 1016.3 |
| 20260902072321 | 78 | 203 | 2.0 | 5.0 | 0.00 | 0.00 | 0.00 | 77 | 1016.3 |
| 20260902072221 | 78 | 165 | 3.0 | 5.0 | 0.00 | 0.00 | 0.00 | 77 | 1016.3 |
| 20260902072121 | 78 | 200 | 3.0 | 5.0 | 0.00 | 0.00 | 0.00 | 77 | 1016.3 |
| 20260902072021 | 78 | 160 | 2.0 | 5.0 | 0.00 | 0.00 | 0.00 | 77 | 1016.3 |
| 20260902071921 | 78 | 197 | 2.0 | 5.0 | 0.00 | 0.00 | 0.00 | 77 | 1016.3 |
| 20260902071821 | 78 | 203 | 3.0 | 5.0 | 0.00 | 0.00 | 0.00 | 77 | 1016.3 |
| 20260902071721 | 78 | 198 | 2.0 | 5.0 | 0.00 | 0.00 | 0.00 | 77 | 1016.3 |
| 20260902071621 | 78 | 149 | 2.0 | 5.0 | 0.00 | 0.00 | 0.00 | 77 | 1016.3 |
| 20260902071521 | 78 | 197 | 3.0 | 4.0 | 0.00 | 0.00 | 0.00 | 77 | 1016.3 |
| 20260902071421 | 78 | 204 | 2.0 | 4.0 | 0.00 | 0.00 | 0.00 | 77 | 1016.3 |
| 20260902071321 | 78 | 210 | 2.0 | 5.0 | 0.00 | 0.00 | 0.00 | 77 | 1016.3 |
| 20260902071221 | 78 | 235 | 2.0 | 5.0 | 0.00 | 0.00 | 0.00 | 77 | 1016.3 |
| 20260902071121 | 78 | 195 | 3.0 | 6.0 | 0.00 | 0.00 | 0.00 | 77 | 1016.3 |
| 20260902071021 | 78 | 143 | 2.0 | 6.0 | 0.00 | 0.00 | 0.00 | 77 | 1016.3 |
| 20260902070921 | 78 | 184 | 2.0 | 6.0 | 0.00 | 0.00 | 0.00 | 77 | 1016.3 |
| 20260902070821 | 78 | 148 | 2.0 | 6.0 | 0.00 | 0.00 | 0.00 | 77 | 1016.3 |
| 20260902070721 | 78 | 191 | 2.0 | 6.0 | 0.00 | 0.00 | 0.00 | 77 | 1016.3 |
| 20260902070621 | 78 | 195 | 2.0 | 6.0 | 0.00 | 0.00 | 0.00 | 77 | 1016.3 |
| 20260902070521 | 78 | 183 | 3.0 | 6.0 | 0.00 | 0.00 | 0.00 | 77 | 1016.3 |
| 20260902070421 | 78 | 205 | 3.0 | 6.0 | 0.00 | 0.00 | 0.00 | 77 | 1016.3 |
| 20260902070321 | 78 | 215 | 3.0 | 6.0 | 0.00 | 0.00 | 0.00 | 77 | 1016.3 |
| 20260902070221 | 78 | 205 | 3.0 | 6.0 | 0.00 | 0.00 | 0.00 | 77 | 1016.3 |
| 20260902070121 | 78 | 191 | 3.0 | 5.0 | 0.00 | 0.00 | 0.00 | 77 | 1016.3 |
| 20260902070021 | 78 | 208 | 3.0 | 5.0 | 0.00 | 0.00 | 0.00 | 77 | 1016.3 |
| 20260902065921 | 78 | 188 | 3.0 | 5.0 | 0.00 | 0.00 | 0.00 | 77 | 1016.3 |
| 20260902065821 | 78 | 166 | 3.0 | 5.0 | 0.00 | 0.00 | 0.00 | 77 | 1016.3 |
| 20260902065721 | 78 | 159 | 2.0 | 4.0 | 0.00 | 0.00 | 0.00 | 77 | 1016.3 |
| 20260902065621 | 78 | 158 | 3.0 | 4.0 | 0.00 | 0.00 | 0.00 | 77 | 1016.3 |
| 20260902065521 | 78 | 173 | 2.0 | 4.0 | 0.00 | 0.00 | 0.00 | 77 | 1016.3 |
| 20260902065421 | 78 | 183 | 2.0 | 4.0 | 0.00 | 0.00 | 0.00 | 77 | 1016.3 |
| 20260902065321 | 78 | 184 | 2.0 | 4.0 | 0.00 | 0.00 | 0.00 | 77 | 1016.3 |
| 20260902065221 | 78 | 177 | 2.0 | 4.0 | 0.00 | 0.00 | 0.00 | 77 | 1016.3 |
| 20260902065121 | 78 | 215 | 3.0 | 4.0 | 0.00 | 0.00 | 0.00 | 77 | 1016.3 |
| 20260902065021 | 78 | 183 | 3.0 | 4.0 | 0.00 | 0.00 | 0.00 | 77 | 1016.3 |
| 20260902064921 | 78 | 184 | 3.0 | 4.0 | 0.00 | 0.00 | 0.00 | 77 | 1016.3 |
| 20260902064821 | 78 | 183 | 3.0 | 4.0 | 0.00 | 0.00 | 0.00 | 77 | 1016.3 |
| 20260902064721 | 78 | 203 | 3.0 | 4.0 | 0.00 | 0.00 | 0.00 | 77 | 1016.3 |
| 20260902064621 | 78 | 201 | 3.0 | 4.0 | 0.00 | 0.00 | 0.00 | 77 | 1016.3 |
| 20260902064521 | 78 | 135 | 3.0 | 4.0 | 0.00 | 0.00 | 0.00 | 77 | 1016.3 |
| 20260902064421 | 78 | 205 | 3.0 | 4.0 | 0.00 | 0.00 | 0.00 | 77 | 1016.3 |
| 20260902064321 | 78 | 188 | 3.0 | 4.0 | 0.00 | 0.00 | 0.00 | 77 | 1016.3 |
| 20260902064221 | 78 | 191 | 3.0 | 4.0 | 0.00 | 0.00 | 0.00 | 77 | 1016.6 |
| 20260902064121 | 78 | 198 | 2.0 | 3.0 | 0.00 | 0.00 | 0.00 | 77 | 1016.6 |
| 20260902064021 | 78 | 170 | 2.0 | 3.0 | 0.00 | 0.00 | 0.00 | 77 | 1016.6 |
| 20260902063921 | 79 | 158 | 1.0 | 3.0 | 0.00 | 0.00 | 0.00 | 77 | 1016.6 |
| 20260902063821 | 78 | 159 | 1.0 | 3.0 | 0.00 | 0.00 | 0.00 | 77 | 1016.6 |
| 20260902063721 | 78 | 173 | 1.0 | 4.0 | 0.00 | 0.00 | 0.00 | 77 | 1016.6 |
| 20260902063621 | 78 | 181 | 2.0 | 4.0 | 0.00 | 0.00 | 0.00 | 77 | 1016.6 |
| 20260902063519 | 79 | 212 | 1.0 | 4.0 | 0.00 | 0.00 | 0.00 | 77 | 1016.6 |
| 20260902063419 | 79 | 204 | 2.0 | 4.0 | 0.00 | 0.00 | 0.00 | 77 | 1016.6 |
| 20260902063319 | 79 | 195 | 1.0 | 4.0 | 0.00 | 0.00 | 0.00 | 77 | 1016.6 |
| 20260902063219 | 79 | 187 | 2.0 | 4.0 | 0.00 | 0.00 | 0.00 | 77 | 1016.6 |
| 20260902063119 | 79 | 169 | 2.0 | 4.0 | 0.00 | 0.00 | 0.00 | 77 | 1016.6 |
| 20260902062127 | 79 | 188 | 2.0 | 3.0 | 0.00 | 0.00 | 0.00 | 77 | 1016.6 |
| 20260902062027 | 79 | 128 | 1.0 | 3.0 | 0.00 | 0.00 | 0.00 | 77 | 1016.6 |
| 20260902061927 | 79 | 187 | 1.0 | 3.0 | 0.00 | 0.00 | 0.00 | 77 | 1016.6 |
| 20260902061827 | 79 | 125 | 0.0 | 3.0 | 0.00 | 0.00 | 0.00 | 76 | 1016.6 |
| 20260902061727 | 79 | 125 | 0.0 | 3.0 | 0.00 | 0.00 | 0.00 | 76 | 1016.6 |
| 20260902061627 | 79 | 125 | 1.0 | 3.0 | 0.00 | 0.00 | 0.00 | 76 | 1016.6 |
| 20260902061527 | 79 | 89 | 2.0 | 3.0 | 0.00 | 0.00 | 0.00 | 76 | 1016.6 |
| 20260902061427 | 79 | 138 | 1.0 | 3.0 | 0.00 | 0.00 | 0.00 | 76 | 1016.6 |
| 20260902061327 | 79 | 128 | 1.0 | 3.0 | 0.00 | 0.00 | 0.00 | 76 | 1016.6 |
| 20260902061227 | 79 | 179 | 1.0 | 3.0 | 0.00 | 0.00 | 0.00 | 76 | 1016.6 |
| 20260902061127 | 79 | 121 | 0.0 | 4.0 | 0.00 | 0.00 | 0.00 | 76 | 1016.6 |
| 20260902061027 | 79 | 138 | 1.0 | 4.0 | 0.00 | 0.00 | 0.00 | 76 | 1016.6 |
| 20260902060927 | 79 | 181 | 1.0 | 4.0 | 0.00 | 0.00 | 0.00 | 76 | 1017.0 |
| 20260902060827 | 79 | 113 | 1.0 | 4.0 | 0.00 | 0.00 | 0.00 | 76 | 1016.6 |
| 20260902060727 | 79 | 148 | 1.0 | 4.0 | 0.00 | 0.00 | 0.00 | 76 | 1016.6 |
| 20260902060627 | 79 | 160 | 0.0 | 4.0 | 0.00 | 0.00 | 0.00 | 76 | 1016.6 |
| 20260902060527 | 79 | 169 | 1.0 | 4.0 | 0.00 | 0.00 | 0.00 | 76 | 1017.0 |
| 20260902060427 | 79 | 183 | 1.0 | 4.0 | 0.00 | 0.00 | 0.00 | 76 | 1016.6 |
| 20260902060327 | 79 | 194 | 1.0 | 4.0 | 0.00 | 0.00 | 0.00 | 76 | 1016.6 |
| 20260902060227 | 79 | 203 | 2.0 | 4.0 | 0.00 | 0.00 | 0.00 | 76 | 1016.6 |
| 20260902060127 | 79 | 191 | 2.0 | 4.0 | 0.00 | 0.00 | 0.00 | 76 | 1016.6 |
| 20260902060027 | 79 | 193 | 2.0 | 4.0 | 0.00 | 0.00 | 0.00 | 76 | 1016.6 |
| 20260902055927 | 79 | 190 | 2.0 | 4.0 | 0.00 | 0.00 | 0.00 | 76 | 1016.6 |
| 20260902055827 | 79 | 160 | 2.0 | 4.0 | 0.00 | 0.00 | 0.00 | 76 | 1016.6 |
| 20260902055727 | 79 | 110 | 2.0 | 3.0 | 0.00 | 0.00 | 0.00 | 76 | 1016.6 |
| 20260902055627 | 79 | 193 | 2.0 | 3.0 | 0.00 | 0.00 | 0.00 | 76 | 1016.6 |
| 20260902055527 | 79 | 176 | 2.0 | 3.0 | 0.00 | 0.00 | 0.00 | 76 | 1016.6 |
| 20260902055427 | 79 | 204 | 2.0 | 3.0 | 0.00 | 0.00 | 0.00 | 75 | 1016.6 |
| 20260902055328 | 79 | 195 | 2.0 | 3.0 | 0.00 | 0.00 | 0.00 | 75 | 1016.6 |
| 20260902055227 | 79 | 194 | 2.0 | 3.0 | 0.00 | 0.00 | 0.00 | 75 | 1016.6 |
| 20260902055127 | 79 | 191 | 2.0 | 3.0 | 0.00 | 0.00 | 0.00 | 75 | 1016.6 |
| 20260902055027 | 79 | 184 | 2.0 | 3.0 | 0.00 | 0.00 | 0.00 | 75 | 1016.6 |
| 20260902054927 | 79 | 217 | 2.0 | 3.0 | 0.00 | 0.00 | 0.00 | 75 | 1016.6 |
| 20260902054827 | 79 | 142 | 2.0 | 3.0 | 0.00 | 0.00 | 0.00 | 75 | 1016.6 |
| 20260902054727 | 79 | 188 | 2.0 | 3.0 | 0.00 | 0.00 | 0.00 | 75 | 1016.6 |
| 20260902054627 | 79 | 184 | 2.0 | 3.0 | 0.00 | 0.00 | 0.00 | 75 | 1016.6 |
| 20260902054527 | 79 | 177 | 2.0 | 4.0 | 0.00 | 0.00 | 0.00 | 75 | 1016.6 |
| 20260902054427 | 79 | 160 | 2.0 | 4.0 | 0.00 | 0.00 | 0.00 | 75 | 1016.6 |
| 20260902054327 | 79 | 170 | 2.0 | 5.0 | 0.00 | 0.00 | 0.00 | 75 | 1016.6 |
| 20260902054227 | 79 | 180 | 2.0 | 5.0 | 0.00 | 0.00 | 0.00 | 75 | 1016.6 |
| 20260902054127 | 79 | 148 | 2.0 | 5.0 | 0.00 | 0.00 | 0.00 | 75 | 1016.6 |
| 20260902054027 | 79 | 152 | 2.0 | 5.0 | 0.00 | 0.00 | 0.00 | 75 | 1016.6 |
| 20260902053927 | 79 | 186 | 2.0 | 5.0 | 0.00 | 0.00 | 0.00 | 75 | 1016.6 |
| 20260902053827 | 79 | 194 | 2.0 | 5.0 | 0.00 | 0.00 | 0.00 | 75 | 1016.6 |
| 20260902053727 | 79 | 217 | 2.0 | 5.0 | 0.00 | 0.00 | 0.00 | 75 | 1016.6 |
| 20260902053627 | 79 | 188 | 3.0 | 5.0 | 0.00 | 0.00 | 0.00 | 75 | 1016.6 |
| 20260902053527 | 79 | 163 | 3.0 | 5.0 | 0.00 | 0.00 | 0.00 | 75 | 1016.6 |
| 20260902053427 | 79 | 158 | 3.0 | 5.0 | 0.00 | 0.00 | 0.00 | 75 | 1016.6 |
| 20260902053327 | 79 | 212 | 3.0 | 5.0 | 0.00 | 0.00 | 0.00 | 75 | 1016.6 |
| 20260902053227 | 79 | 235 | 3.0 | 5.0 | 0.00 | 0.00 | 0.00 | 75 | 1016.6 |
| 20260902053127 | 79 | 212 | 2.0 | 5.0 | 0.00 | 0.00 | 0.00 | 75 | 1016.6 |
| 20260902053027 | 79 | 259 | 2.0 | 5.0 | 0.00 | 0.00 | 0.00 | 75 | 1016.6 |
| 20260902052927 | 79 | 221 | 3.0 | 5.0 | 0.00 | 0.00 | 0.00 | 75 | 1016.6 |
| 20260902052827 | 79 | 125 | 2.0 | 5.0 | 0.00 | 0.00 | 0.00 | 75 | 1016.6 |
| 20260902052727 | 79 | 198 | 3.0 | 5.0 | 0.00 | 0.00 | 0.00 | 75 | 1016.6 |
| 20260902052627 | 79 | 203 | 3.0 | 5.0 | 0.00 | 0.00 | 0.00 | 75 | 1016.3 |
| 20260902052527 | 79 | 188 | 3.0 | 5.0 | 0.00 | 0.00 | 0.00 | 75 | 1016.3 |
| 20260902052427 | 79 | 190 | 3.0 | 5.0 | 0.00 | 0.00 | 0.00 | 75 | 1016.3 |
| 20260902052327 | 79 | 207 | 2.0 | 8.0 | 0.00 | 0.00 | 0.00 | 75 | 1016.3 |
| 20260902052227 | 79 | 205 | 3.0 | 8.0 | 0.00 | 0.00 | 0.00 | 75 | 1016.6 |
| 20260902052127 | 79 | 187 | 3.0 | 8.0 | 0.00 | 0.00 | 0.00 | 75 | 1016.3 |
| 20260902052027 | 79 | 218 | 3.0 | 8.0 | 0.00 | 0.00 | 0.00 | 75 | 1016.6 |
| 20260902051927 | 80 | 180 | 2.0 | 8.0 | 0.00 | 0.00 | 0.00 | 75 | 1016.3 |
| 20260902051827 | 80 | 170 | 3.0 | 8.0 | 0.00 | 0.00 | 0.00 | 75 | 1016.3 |
| 20260902051727 | 80 | 243 | 3.0 | 8.0 | 0.00 | 0.00 | 0.00 | 74 | 1016.3 |
| 20260902051627 | 80 | 183 | 3.0 | 8.0 | 0.00 | 0.00 | 0.00 | 74 | 1016.3 |
| 20260902051527 | 80 | 211 | 2.0 | 8.0 | 0.00 | 0.00 | 0.00 | 74 | 1016.3 |
| 20260902051427 | 80 | 200 | 4.0 | 8.0 | 0.00 | 0.00 | 0.00 | 74 | 1016.3 |
| 20260902051327 | 80 | 224 | 3.0 | 6.0 | 0.00 | 0.00 | 0.00 | 74 | 1016.3 |
| 20260902051227 | 80 | 167 | 2.0 | 6.0 | 0.00 | 0.00 | 0.00 | 74 | 1016.3 |
| 20260902051127 | 80 | 139 | 2.0 | 6.0 | 0.00 | 0.00 | 0.00 | 74 | 1016.3 |
| 20260902051027 | 80 | 170 | 3.0 | 6.0 | 0.00 | 0.00 | 0.00 | 74 | 1016.3 |
| 20260902050927 | 80 | 198 | 2.0 | 5.0 | 0.00 | 0.00 | 0.00 | 74 | 1016.3 |
| 20260902050827 | 80 | 188 | 3.0 | 7.0 | 0.00 | 0.00 | 0.00 | 74 | 1016.3 |
| 20260902050727 | 80 | 184 | 3.0 | 7.0 | 0.00 | 0.00 | 0.00 | 74 | 1016.3 |
| 20260902050627 | 80 | 186 | 2.0 | 7.0 | 0.00 | 0.00 | 0.00 | 74 | 1016.3 |
| 20260902050527 | 80 | 188 | 2.0 | 7.0 | 0.00 | 0.00 | 0.00 | 74 | 1016.3 |
| 20260902050427 | 80 | 201 | 1.0 | 7.0 | 0.00 | 0.00 | 0.00 | 73 | 1016.3 |
| 20260902050327 | 80 | 224 | 3.0 | 7.0 | 0.00 | 0.00 | 0.00 | 73 | 1016.3 |
| 20260902050227 | 80 | 181 | 2.0 | 7.0 | 0.00 | 0.00 | 0.00 | 73 | 1016.3 |
| 20260902050127 | 80 | 170 | 3.0 | 8.0 | 0.00 | 0.00 | 0.00 | 73 | 1016.3 |
| 20260902050027 | 80 | 201 | 3.0 | 8.0 | 0.00 | 0.00 | 0.00 | 73 | 1016.3 |
| 20260902045927 | 80 | 198 | 4.0 | 8.0 | 0.00 | 0.00 | 0.00 | 73 | 1016.3 |
| 20260902045827 | 80 | 197 | 4.0 | 8.0 | 0.00 | 0.00 | 0.00 | 73 | 1016.3 |
| 20260902045727 | 80 | 214 | 3.0 | 8.0 | 0.00 | 0.00 | 0.00 | 73 | 1016.3 |
| 20260902045627 | 80 | 180 | 3.0 | 8.0 | 0.00 | 0.00 | 0.00 | 73 | 1016.3 |
| 20260902045527 | 80 | 243 | 3.0 | 8.0 | 0.00 | 0.00 | 0.00 | 73 | 1016.3 |
| 20260902045427 | 80 | 187 | 3.0 | 8.0 | 0.00 | 0.00 | 0.00 | 73 | 1016.3 |
| 20260902045327 | 80 | 188 | 4.0 | 8.0 | 0.00 | 0.00 | 0.00 | 73 | 1016.3 |
| 20260902045227 | 80 | 186 | 4.0 | 8.0 | 0.00 | 0.00 | 0.00 | 73 | 1016.3 |
| 20260902045127 | 80 | 191 | 4.0 | 9.0 | 0.00 | 0.00 | 0.00 | 73 | 1016.3 |
| 20260902045027 | 80 | 191 | 4.0 | 9.0 | 0.00 | 0.00 | 0.00 | 73 | 1016.3 |
| 20260902044927 | 80 | 174 | 3.0 | 9.0 | 0.00 | 0.00 | 0.00 | 73 | 1016.3 |
| 20260902044827 | 80 | 207 | 4.0 | 9.0 | 0.00 | 0.00 | 0.00 | 73 | 1016.3 |
| 20260902044727 | 80 | 193 | 4.0 | 9.0 | 0.00 | 0.00 | 0.00 | 73 | 1016.3 |
| 20260902044627 | 80 | 256 | 3.0 | 9.0 | 0.00 | 0.00 | 0.00 | 73 | 1016.3 |
| 20260902044527 | 80 | 181 | 3.0 | 9.0 | 0.00 | 0.00 | 0.00 | 73 | 1016.3 |
| 20260902044427 | 80 | 188 | 4.0 | 9.0 | 0.00 | 0.00 | 0.00 | 73 | 1016.3 |
| 20260902044327 | 80 | 207 | 4.0 | 9.0 | 0.00 | 0.00 | 0.00 | 73 | 1016.3 |
| 20260902044227 | 80 | 194 | 6.0 | 9.0 | 0.00 | 0.00 | 0.00 | 73 | 1016.3 |
| 20260902044127 | 80 | 197 | 5.0 | 8.0 | 0.00 | 0.00 | 0.00 | 73 | 1016.3 |
| 20260902044027 | 80 | 198 | 5.0 | 7.0 | 0.00 | 0.00 | 0.00 | 73 | 1016.3 |
| 20260902043927 | 80 | 194 | 3.0 | 9.0 | 0.00 | 0.00 | 0.00 | 73 | 1016.3 |
| 20260902043827 | 80 | 179 | 5.0 | 9.0 | 0.00 | 0.00 | 0.00 | 73 | 1016.3 |
| 20260902043727 | 80 | 159 | 3.0 | 9.0 | 0.00 | 0.00 | 0.00 | 73 | 1016.3 |
| 20260902043627 | 80 | 183 | 3.0 | 9.0 | 0.00 | 0.00 | 0.00 | 73 | 1016.3 |
| 20260902043527 | 80 | 197 | 4.0 | 9.0 | 0.00 | 0.00 | 0.00 | 73 | 1016.3 |
| 20260902043427 | 80 | 225 | 4.0 | 9.0 | 0.00 | 0.00 | 0.00 | 73 | 1016.3 |
| 20260902043327 | 80 | 260 | 3.0 | 9.0 | 0.00 | 0.00 | 0.00 | 73 | 1016.3 |
| 20260902043227 | 80 | 198 | 4.0 | 9.0 | 0.00 | 0.00 | 0.00 | 73 | 1016.3 |
| 20260902043127 | 80 | 200 | 3.0 | 9.0 | 0.00 | 0.00 | 0.00 | 73 | 1016.3 |
| 20260902043027 | 80 | 190 | 5.0 | 9.0 | 0.00 | 0.00 | 0.00 | 73 | 1016.3 |
| 20260902042927 | 80 | 218 | 3.0 | 7.0 | 0.00 | 0.00 | 0.00 | 73 | 1016.3 |
| 20260902042827 | 80 | 191 | 4.0 | 7.0 | 0.00 | 0.00 | 0.00 | 73 | 1016.3 |
| 20260902042727 | 80 | 205 | 4.0 | 8.0 | 0.00 | 0.00 | 0.00 | 73 | 1016.3 |
| 20260902042627 | 80 | 208 | 4.0 | 8.0 | 0.00 | 0.00 | 0.00 | 73 | 1016.3 |
| 20260902042527 | 81 | 184 | 5.0 | 8.0 | 0.00 | 0.00 | 0.00 | 73 | 1016.3 |
| 20260902042427 | 81 | 188 | 4.0 | 8.0 | 0.00 | 0.00 | 0.00 | 73 | 1016.3 |
| 20260902042327 | 81 | 201 | 4.0 | 8.0 | 0.00 | 0.00 | 0.00 | 73 | 1016.3 |
| 20260902042227 | 81 | 204 | 5.0 | 8.0 | 0.00 | 0.00 | 0.00 | 73 | 1016.3 |
| 20260902042127 | 80 | 217 | 5.0 | 8.0 | 0.00 | 0.00 | 0.00 | 73 | 1016.3 |
| 20260902042027 | 80 | 204 | 5.0 | 8.0 | 0.00 | 0.00 | 0.00 | 73 | 1016.6 |
| 20260902041927 | 81 | 195 | 4.0 | 8.0 | 0.00 | 0.00 | 0.00 | 73 | 1016.3 |
| 20260902041827 | 80 | 221 | 4.0 | 8.0 | 0.00 | 0.00 | 0.00 | 73 | 1016.6 |
| 20260902041727 | 80 | 207 | 3.0 | 6.0 | 0.00 | 0.00 | 0.00 | 72 | 1016.6 |
| 20260902041627 | 80 | 187 | 3.0 | 6.0 | 0.00 | 0.00 | 0.00 | 72 | 1016.6 |
| 20260902041527 | 81 | 195 | 3.0 | 6.0 | 0.00 | 0.00 | 0.00 | 72 | 1016.6 |
| 20260902041427 | 81 | 207 | 3.0 | 6.0 | 0.00 | 0.00 | 0.00 | 72 | 1016.6 |
| 20260902041327 | 81 | 204 | 3.0 | 6.0 | 0.00 | 0.00 | 0.00 | 72 | 1016.6 |
| 20260902041227 | 81 | 205 | 4.0 | 6.0 | 0.00 | 0.00 | 0.00 | 72 | 1016.6 |
| 20260902041127 | 81 | 187 | 3.0 | 5.0 | 0.00 | 0.00 | 0.00 | 72 | 1016.6 |
| 20260902041027 | 81 | 203 | 3.0 | 5.0 | 0.00 | 0.00 | 0.00 | 72 | 1016.6 |
| 20260902040927 | 81 | 200 | 2.0 | 5.0 | 0.00 | 0.00 | 0.00 | 72 | 1016.6 |
| 20260902040827 | 81 | 194 | 2.0 | 5.0 | 0.00 | 0.00 | 0.00 | 72 | 1016.6 |
| 20260902040727 | 81 | 198 | 2.0 | 5.0 | 0.00 | 0.00 | 0.00 | 72 | 1016.6 |
| 20260902040627 | 81 | 184 | 3.0 | 5.0 | 0.00 | 0.00 | 0.00 | 72 | 1016.6 |
| 20260902040527 | 81 | 194 | 3.0 | 5.0 | 0.00 | 0.00 | 0.00 | 72 | 1016.6 |
| 20260902040427 | 81 | 263 | 2.0 | 4.0 | 0.00 | 0.00 | 0.00 | 72 | 1016.6 |
| 20260902040327 | 81 | 255 | 2.0 | 4.0 | 0.00 | 0.00 | 0.00 | 72 | 1016.6 |
| 20260902040227 | 81 | 211 | 3.0 | 4.0 | 0.00 | 0.00 | 0.00 | 72 | 1016.6 |
| 20260902040127 | 81 | 160 | 3.0 | 4.0 | 0.00 | 0.00 | 0.00 | 72 | 1016.6 |
| 20260902040027 | 81 | 228 | 2.0 | 4.0 | 0.00 | 0.00 | 0.00 | 71 | 1016.6 |
| 20260902035927 | 81 | 191 | 2.0 | 6.0 | 0.00 | 0.00 | 0.00 | 71 | 1016.6 |
| 20260902035827 | 81 | 200 | 2.0 | 6.0 | 0.00 | 0.00 | 0.00 | 71 | 1016.6 |
| 20260902035727 | 81 | 179 | 3.0 | 6.0 | 0.00 | 0.00 | 0.00 | 71 | 1016.6 |
| 20260902035627 | 81 | 201 | 3.0 | 6.0 | 0.00 | 0.00 | 0.00 | 71 | 1016.6 |
| 20260902035527 | 81 | 201 | 2.0 | 6.0 | 0.00 | 0.00 | 0.00 | 71 | 1016.6 |
| 20260902035427 | 81 | 183 | 3.0 | 6.0 | 0.00 | 0.00 | 0.00 | 71 | 1016.6 |
| 20260902035327 | 81 | 195 | 1.0 | 6.0 | 0.00 | 0.00 | 0.00 | 71 | 1016.6 |
| 20260902035227 | 81 | 194 | 2.0 | 6.0 | 0.00 | 0.00 | 0.00 | 71 | 1016.6 |
| 20260902035127 | 81 | 210 | 2.0 | 6.0 | 0.00 | 0.00 | 0.00 | 71 | 1016.6 |
| 20260902035027 | 81 | 194 | 3.0 | 6.0 | 0.00 | 0.00 | 0.00 | 71 | 1016.6 |
| 20260902034927 | 81 | 208 | 3.0 | 6.0 | 0.00 | 0.00 | 0.00 | 71 | 1016.6 |
| 20260902034827 | 81 | 204 | 2.0 | 6.0 | 0.00 | 0.00 | 0.00 | 71 | 1016.6 |
| 20260902034727 | 81 | 221 | 1.0 | 6.0 | 0.00 | 0.00 | 0.00 | 71 | 1016.6 |
| 20260902034627 | 81 | 271 | 3.0 | 6.0 | 0.00 | 0.00 | 0.00 | 71 | 1016.6 |
| 20260902034527 | 81 | 210 | 3.0 | 6.0 | 0.00 | 0.00 | 0.00 | 71 | 1016.6 |
| 20260902034427 | 81 | 215 | 3.0 | 6.0 | 0.00 | 0.00 | 0.00 | 71 | 1016.6 |
| 20260902034327 | 81 | 211 | 4.0 | 6.0 | 0.00 | 0.00 | 0.00 | 71 | 1016.6 |
| 20260902034227 | 81 | 201 | 4.0 | 6.0 | 0.00 | 0.00 | 0.00 | 71 | 1016.6 |
| 20260902034127 | 81 | 193 | 3.0 | 6.0 | 0.00 | 0.00 | 0.00 | 71 | 1016.6 |
| 20260902034027 | 81 | 231 | 3.0 | 6.0 | 0.00 | 0.00 | 0.00 | 71 | 1016.6 |
| 20260902033927 | 81 | 203 | 3.0 | 6.0 | 0.00 | 0.00 | 0.00 | 71 | 1016.6 |
| 20260902033827 | 81 | 208 | 3.0 | 6.0 | 0.00 | 0.00 | 0.00 | 71 | 1016.6 |
| 20260902033727 | 81 | 224 | 3.0 | 6.0 | 0.00 | 0.00 | 0.00 | 71 | 1016.6 |
| 20260902033627 | 81 | 231 | 4.0 | 6.0 | 0.00 | 0.00 | 0.00 | 71 | 1016.6 |
| 20260902033527 | 81 | 183 | 3.0 | 5.0 | 0.00 | 0.00 | 0.00 | 71 | 1016.6 |
| 20260902033427 | 82 | 179 | 3.0 | 5.0 | 0.00 | 0.00 | 0.00 | 71 | 1016.6 |
| 20260902033327 | 81 | 210 | 2.0 | 5.0 | 0.00 | 0.00 | 0.00 | 71 | 1016.6 |
| 20260902033227 | 81 | 222 | 2.0 | 5.0 | 0.00 | 0.00 | 0.00 | 71 | 1016.6 |
| 20260902033127 | 81 | 215 | 3.0 | 5.0 | 0.00 | 0.00 | 0.00 | 71 | 1016.6 |
| 20260902033027 | 81 | 104 | 1.0 | 5.0 | 0.00 | 0.00 | 0.00 | 70 | 1016.6 |
| 20260902032927 | 81 | 158 | 1.0 | 5.0 | 0.00 | 0.00 | 0.00 | 70 | 1016.6 |
| 20260902032827 | 82 | 165 | 2.0 | 5.0 | 0.00 | 0.00 | 0.00 | 70 | 1016.6 |
| 20260902032727 | 82 | 211 | 3.0 | 6.0 | 0.00 | 0.00 | 0.00 | 70 | 1016.6 |
| 20260902032627 | 82 | 170 | 2.0 | 6.0 | 0.00 | 0.00 | 0.00 | 70 | 1016.6 |
| 20260902032527 | 82 | 183 | 3.0 | 6.0 | 0.00 | 0.00 | 0.00 | 70 | 1016.6 |
| 20260902032427 | 82 | 169 | 4.0 | 6.0 | 0.00 | 0.00 | 0.00 | 70 | 1016.6 |
| 20260902032327 | 82 | 203 | 3.0 | 6.0 | 0.00 | 0.00 | 0.00 | 70 | 1016.6 |
| 20260902032227 | 82 | 179 | 2.0 | 6.0 | 0.00 | 0.00 | 0.00 | 70 | 1016.6 |
| 20260902032127 | 82 | 169 | 3.0 | 6.0 | 0.00 | 0.00 | 0.00 | 70 | 1016.6 |
| 20260902032027 | 82 | 208 | 2.0 | 6.0 | 0.00 | 0.00 | 0.00 | 70 | 1016.6 |
| 20260902031927 | 82 | 243 | 3.0 | 6.0 | 0.00 | 0.00 | 0.00 | 70 | 1016.6 |
| 20260902031827 | 82 | 186 | 4.0 | 6.0 | 0.00 | 0.00 | 0.00 | 70 | 1016.6 |
| 20260902031727 | 82 | 188 | 3.0 | 5.0 | 0.00 | 0.00 | 0.00 | 70 | 1016.6 |
| 20260902031627 | 82 | 191 | 2.0 | 5.0 | 0.00 | 0.00 | 0.00 | 70 | 1016.6 |
| 20260902031527 | 82 | 198 | 2.0 | 6.0 | 0.00 | 0.00 | 0.00 | 70 | 1016.6 |
| 20260902031427 | 82 | 197 | 2.0 | 6.0 | 0.00 | 0.00 | 0.00 | 70 | 1016.6 |
| 20260902031327 | 82 | 190 | 2.0 | 6.0 | 0.00 | 0.00 | 0.00 | 70 | 1016.6 |
| 20260902031227 | 82 | 201 | 2.0 | 6.0 | 0.00 | 0.00 | 0.00 | 70 | 1016.6 |
| 20260902031127 | 82 | 204 | 3.0 | 6.0 | 0.00 | 0.00 | 0.00 | 70 | 1016.6 |
| 20260902031027 | 82 | 204 | 3.0 | 6.0 | 0.00 | 0.00 | 0.00 | 70 | 1016.6 |
| 20260902030927 | 82 | 167 | 3.0 | 6.0 | 0.00 | 0.00 | 0.00 | 70 | 1016.6 |
| 20260902030827 | 82 | 257 | 1.0 | 6.0 | 0.00 | 0.00 | 0.00 | 70 | 1016.6 |
| 20260902030727 | 82 | 181 | 3.0 | 6.0 | 0.00 | 0.00 | 0.00 | 70 | 1016.6 |
| 20260902030627 | 82 | 177 | 2.0 | 6.0 | 0.00 | 0.00 | 0.00 | 69 | 1016.6 |
| 20260902030527 | 82 | 207 | 2.0 | 5.0 | 0.00 | 0.00 | 0.00 | 69 | 1016.6 |
| 20260902030427 | 82 | 195 | 2.0 | 5.0 | 0.00 | 0.00 | 0.00 | 69 | 1016.6 |
| 20260902030327 | 82 | 191 | 2.0 | 5.0 | 0.00 | 0.00 | 0.00 | 69 | 1016.6 |
| 20260902030227 | 82 | 194 | 3.0 | 5.0 | 0.00 | 0.00 | 0.00 | 69 | 1016.6 |
| 20260902030127 | 82 | 195 | 2.0 | 5.0 | 0.00 | 0.00 | 0.00 | 69 | 1016.6 |
| 20260902030027 | 82 | 194 | 2.0 | 5.0 | 0.00 | 0.00 | 0.00 | 69 | 1016.6 |
| 20260902025927 | 82 | 205 | 2.0 | 5.0 | 0.00 | 0.00 | 0.00 | 69 | 1016.6 |
| 20260902025827 | 82 | 212 | 2.0 | 6.0 | 0.00 | 0.00 | 0.00 | 69 | 1016.6 |
| 20260902025727 | 82 | 205 | 2.0 | 6.0 | 0.00 | 0.00 | 0.00 | 69 | 1016.6 |
| 20260902025627 | 82 | 156 | 3.0 | 6.0 | 0.00 | 0.00 | 0.00 | 69 | 1016.6 |
| 20260902025527 | 82 | 190 | 3.0 | 6.0 | 0.00 | 0.00 | 0.00 | 69 | 1016.6 |
| 20260902025427 | 82 | 195 | 2.0 | 6.0 | 0.00 | 0.00 | 0.00 | 69 | 1016.6 |
| 20260902025327 | 82 | 248 | 3.0 | 6.0 | 0.00 | 0.00 | 0.00 | 69 | 1016.6 |
| 20260902025227 | 82 | 211 | 2.0 | 6.0 | 0.00 | 0.00 | 0.00 | 69 | 1016.6 |
| 20260902025127 | 82 | 232 | 2.0 | 6.0 | 0.00 | 0.00 | 0.00 | 69 | 1016.6 |
| 20260902025027 | 83 | 195 | 2.0 | 6.0 | 0.00 | 0.00 | 0.00 | 69 | 1016.6 |
| 20260902024927 | 83 | 236 | 2.0 | 6.0 | 0.00 | 0.00 | 0.00 | 69 | 1016.6 |
| 20260902024827 | 83 | 207 | 4.0 | 6.0 | 0.00 | 0.00 | 0.00 | 69 | 1016.6 |
| 20260902024727 | 83 | 190 | 3.0 | 5.0 | 0.00 | 0.00 | 0.00 | 69 | 1016.6 |
| 20260902024627 | 83 | 205 | 3.0 | 5.0 | 0.00 | 0.00 | 0.00 | 69 | 1016.6 |
| 20260902024527 | 83 | 203 | 3.0 | 5.0 | 0.00 | 0.00 | 0.00 | 69 | 1016.6 |
| 20260902024427 | 83 | 201 | 3.0 | 5.0 | 0.00 | 0.00 | 0.00 | 69 | 1016.6 |
| 20260902024327 | 83 | 207 | 3.0 | 5.0 | 0.00 | 0.00 | 0.00 | 69 | 1016.6 |
| 20260902024227 | 83 | 211 | 4.0 | 5.0 | 0.00 | 0.00 | 0.00 | 69 | 1016.6 |
| 20260902024127 | 83 | 179 | 3.0 | 5.0 | 0.00 | 0.00 | 0.00 | 69 | 1016.6 |
| 20260902024027 | 83 | 194 | 4.0 | 5.0 | 0.00 | 0.00 | 0.00 | 68 | 1016.6 |
| 20260902023927 | 83 | 165 | 3.0 | 5.0 | 0.00 | 0.00 | 0.00 | 68 | 1016.6 |
| 20260902023827 | 83 | 180 | 1.0 | 5.0 | 0.00 | 0.00 | 0.00 | 68 | 1016.6 |
| 20260902023727 | 83 | 198 | 3.0 | 5.0 | 0.00 | 0.00 | 0.00 | 68 | 1016.6 |
| 20260902023627 | 83 | 207 | 3.0 | 5.0 | 0.00 | 0.00 | 0.00 | 68 | 1016.6 |
| 20260902023527 | 83 | 191 | 3.0 | 5.0 | 0.00 | 0.00 | 0.00 | 68 | 1016.6 |
| 20260902023427 | 83 | 246 | 4.0 | 5.0 | 0.00 | 0.00 | 0.00 | 68 | 1016.6 |
| 20260902023327 | 83 | 208 | 2.0 | 5.0 | 0.00 | 0.00 | 0.00 | 68 | 1016.6 |
| 20260902023227 | 83 | 197 | 2.0 | 5.0 | 0.00 | 0.00 | 0.00 | 68 | 1016.6 |
| 20260902023127 | 83 | 197 | 3.0 | 5.0 | 0.00 | 0.00 | 0.00 | 68 | 1016.6 |
| 20260902023027 | 83 | 195 | 2.0 | 5.0 | 0.00 | 0.00 | 0.00 | 68 | 1016.6 |
| 20260902022927 | 83 | 197 | 3.0 | 5.0 | 0.00 | 0.00 | 0.00 | 68 | 1016.6 |
| 20260902022827 | 83 | 179 | 1.0 | 6.0 | 0.00 | 0.00 | 0.00 | 68 | 1016.6 |
| 20260902022727 | 83 | 210 | 1.0 | 6.0 | 0.00 | 0.00 | 0.00 | 68 | 1016.6 |
| 20260902022627 | 83 | 195 | 3.0 | 6.0 | 0.00 | 0.00 | 0.00 | 68 | 1016.6 |
| 20260902022527 | 83 | 221 | 2.0 | 6.0 | 0.00 | 0.00 | 0.00 | 68 | 1016.6 |
| 20260902022427 | 83 | 221 | 1.0 | 6.0 | 0.00 | 0.00 | 0.00 | 67 | 1016.6 |
| 20260902022327 | 83 | 222 | 1.0 | 7.0 | 0.00 | 0.00 | 0.00 | 67 | 1016.6 |
| 20260902022227 | 83 | 183 | 2.0 | 7.0 | 0.00 | 0.00 | 0.00 | 68 | 1016.6 |
| 20260902022127 | 83 | 193 | 3.0 | 7.0 | 0.00 | 0.00 | 0.00 | 68 | 1016.6 |
| 20260902022027 | 83 | 217 | 2.0 | 7.0 | 0.00 | 0.00 | 0.00 | 68 | 1016.6 |
| 20260902021927 | 84 | 236 | 4.0 | 7.0 | 0.00 | 0.00 | 0.00 | 68 | 1016.6 |
| 20260902021827 | 83 | 217 | 4.0 | 7.0 | 0.00 | 0.00 | 0.00 | 68 | 1016.6 |
| 20260902021727 | 84 | 194 | 3.0 | 7.0 | 0.00 | 0.00 | 0.00 | 68 | 1016.6 |
| 20260902021627 | 83 | 229 | 2.0 | 7.0 | 0.00 | 0.00 | 0.00 | 67 | 1016.6 |
| 20260902021527 | 83 | 224 | 2.0 | 7.0 | 0.00 | 0.00 | 0.00 | 67 | 1016.6 |
| 20260902021427 | 83 | 224 | 4.0 | 7.0 | 0.00 | 0.00 | 0.00 | 67 | 1016.6 |
| 20260902021327 | 83 | 166 | 3.0 | 6.0 | 0.00 | 0.00 | 0.00 | 67 | 1016.6 |
| 20260902021227 | 83 | 188 | 4.0 | 6.0 | 0.00 | 0.00 | 0.00 | 67 | 1016.6 |
| 20260902021127 | 84 | 201 | 3.0 | 6.0 | 0.00 | 0.00 | 0.00 | 67 | 1016.6 |
| 20260902021027 | 84 | 188 | 2.0 | 4.0 | 0.00 | 0.00 | 0.00 | 67 | 1016.6 |
| 20260902020927 | 84 | 163 | 2.0 | 4.0 | 0.00 | 0.00 | 0.00 | 67 | 1016.6 |
| 20260902020827 | 84 | 145 | 1.0 | 4.0 | 0.00 | 0.00 | 0.00 | 67 | 1016.6 |
| 20260902020727 | 84 | 165 | 1.0 | 4.0 | 0.00 | 0.00 | 0.00 | 67 | 1016.6 |
| 20260902020627 | 84 | 212 | 3.0 | 6.0 | 0.00 | 0.00 | 0.00 | 67 | 1016.6 |
| 20260902020527 | 84 | 208 | 2.0 | 6.0 | 0.00 | 0.00 | 0.00 | 67 | 1016.6 |
| 20260902020427 | 84 | 229 | 1.0 | 6.0 | 0.00 | 0.00 | 0.00 | 67 | 1016.6 |
| 20260902020327 | 84 | 215 | 1.0 | 6.0 | 0.00 | 0.00 | 0.00 | 67 | 1016.6 |
| 20260902020227 | 84 | 218 | 2.0 | 6.0 | 0.00 | 0.00 | 0.00 | 67 | 1016.6 |
| 20260902020127 | 84 | 221 | 2.0 | 6.0 | 0.00 | 0.00 | 0.00 | 67 | 1016.6 |
| 20260902020027 | 84 | 191 | 2.0 | 6.0 | 0.00 | 0.00 | 0.00 | 67 | 1016.6 |
| 20260902015927 | 84 | 212 | 2.0 | 6.0 | 0.00 | 0.00 | 0.00 | 66 | 1016.6 |
| 20260902015827 | 84 | 212 | 3.0 | 6.0 | 0.00 | 0.00 | 0.00 | 66 | 1016.6 |
| 20260902015727 | 84 | 229 | 4.0 | 6.0 | 0.00 | 0.00 | 0.00 | 66 | 1016.6 |
| 20260902015627 | 84 | 172 | 3.0 | 7.0 | 0.00 | 0.00 | 0.00 | 66 | 1016.6 |
| 20260902015527 | 84 | 215 | 3.0 | 7.0 | 0.00 | 0.00 | 0.00 | 66 | 1016.6 |
| 20260902015427 | 84 | 190 | 4.0 | 7.0 | 0.00 | 0.00 | 0.00 | 66 | 1016.6 |
| 20260902015327 | 84 | 214 | 3.0 | 7.0 | 0.00 | 0.00 | 0.00 | 66 | 1016.6 |
| 20260902015227 | 84 | 184 | 4.0 | 7.0 | 0.00 | 0.00 | 0.00 | 66 | 1016.6 |
| 20260902015127 | 84 | 260 | 3.0 | 7.0 | 0.00 | 0.00 | 0.00 | 66 | 1016.6 |
| 20260902015027 | 84 | 250 | 4.0 | 7.0 | 0.00 | 0.00 | 0.00 | 66 | 1016.6 |
| 20260902014927 | 84 | 195 | 3.0 | 7.0 | 0.00 | 0.00 | 0.00 | 66 | 1016.6 |
| 20260902014827 | 84 | 197 | 3.0 | 7.0 | 0.00 | 0.00 | 0.00 | 66 | 1016.6 |
| 20260902014727 | 84 | 197 | 5.0 | 7.0 | 0.00 | 0.00 | 0.00 | 66 | 1016.6 |
| 20260902014627 | 84 | 184 | 5.0 | 7.0 | 0.00 | 0.00 | 0.00 | 66 | 1016.6 |
| 20260902014527 | 84 | 208 | 4.0 | 7.0 | 0.00 | 0.00 | 0.00 | 66 | 1016.6 |
| 20260902014427 | 84 | 212 | 4.0 | 6.0 | 0.00 | 0.00 | 0.00 | 66 | 1016.6 |
| 20260902014327 | 84 | 159 | 3.0 | 6.0 | 0.00 | 0.00 | 0.00 | 66 | 1016.6 |
| 20260902014227 | 84 | 184 | 4.0 | 6.0 | 0.00 | 0.00 | 0.00 | 66 | 1016.6 |
| 20260902014127 | 84 | 210 | 5.0 | 6.0 | 0.00 | 0.00 | 0.00 | 66 | 1016.6 |
| 20260902014027 | 84 | 212 | 2.0 | 6.0 | 0.00 | 0.00 | 0.00 | 66 | 1016.6 |
| 20260902013927 | 84 | 190 | 3.0 | 6.0 | 0.00 | 0.00 | 0.00 | 66 | 1016.6 |
| 20260902013827 | 84 | 200 | 4.0 | 6.0 | 0.00 | 0.00 | 0.00 | 66 | 1016.6 |
| 20260902013727 | 84 | 197 | 4.0 | 6.0 | 0.00 | 0.00 | 0.00 | 66 | 1016.6 |
| 20260902013627 | 84 | 214 | 4.0 | 6.0 | 0.00 | 0.00 | 0.00 | 66 | 1016.6 |
| 20260902013527 | 84 | 188 | 4.0 | 6.0 | 0.00 | 0.00 | 0.00 | 67 | 1016.6 |
| 20260902013427 | 84 | 180 | 3.0 | 6.0 | 0.00 | 0.00 | 0.00 | 67 | 1016.6 |
| 20260902013327 | 84 | 200 | 3.0 | 6.0 | 0.00 | 0.00 | 0.00 | 67 | 1016.6 |
| 20260902013227 | 84 | 190 | 4.0 | 6.0 | 0.00 | 0.00 | 0.00 | 67 | 1016.6 |
| 20260902013127 | 84 | 197 | 4.0 | 6.0 | 0.00 | 0.00 | 0.00 | 67 | 1016.6 |
| 20260902013027 | 84 | 193 | 3.0 | 6.0 | 0.00 | 0.00 | 0.00 | 67 | 1016.6 |
| 20260902012927 | 84 | 222 | 3.0 | 6.0 | 0.00 | 0.00 | 0.00 | 67 | 1016.6 |
| 20260902012827 | 84 | 176 | 3.0 | 6.0 | 0.00 | 0.00 | 0.00 | 67 | 1016.6 |
| 20260902012727 | 84 | 188 | 4.0 | 6.0 | 0.00 | 0.00 | 0.00 | 67 | 1016.3 |
| 20260902012627 | 84 | 176 | 3.0 | 6.0 | 0.00 | 0.00 | 0.00 | 67 | 1016.3 |
| 20260902012527 | 84 | 194 | 2.0 | 4.0 | 0.00 | 0.00 | 0.00 | 67 | 1016.3 |
| 20260902012427 | 84 | 195 | 3.0 | 4.0 | 0.00 | 0.00 | 0.00 | 66 | 1016.3 |
| 20260902012327 | 84 | 186 | 2.0 | 4.0 | 0.00 | 0.00 | 0.00 | 66 | 1016.3 |
| 20260902012227 | 84 | 188 | 2.0 | 4.0 | 0.00 | 0.00 | 0.00 | 66 | 1016.3 |
| 20260902012127 | 84 | 179 | 2.0 | 5.0 | 0.00 | 0.00 | 0.00 | 66 | 1016.3 |
| 20260902012027 | 84 | 176 | 3.0 | 5.0 | 0.00 | 0.00 | 0.00 | 66 | 1016.3 |
| 20260902011927 | 84 | 195 | 3.0 | 5.0 | 0.00 | 0.00 | 0.00 | 66 | 1016.3 |
| 20260902011827 | 84 | 180 | 3.0 | 5.0 | 0.00 | 0.00 | 0.00 | 66 | 1016.3 |
| 20260902011727 | 84 | 155 | 2.0 | 5.0 | 0.00 | 0.00 | 0.00 | 66 | 1016.3 |
| 20260902011627 | 85 | 188 | 2.0 | 5.0 | 0.00 | 0.00 | 0.00 | 66 | 1016.3 |
| 20260902011527 | 84 | 181 | 2.0 | 5.0 | 0.00 | 0.00 | 0.00 | 65 | 1016.3 |
| 20260902011427 | 85 | 186 | 2.0 | 5.0 | 0.00 | 0.00 | 0.00 | 65 | 1016.3 |
| 20260902011327 | 85 | 198 | 2.0 | 5.0 | 0.00 | 0.00 | 0.00 | 65 | 1016.3 |
| 20260902011227 | 85 | 191 | 3.0 | 5.0 | 0.00 | 0.00 | 0.00 | 65 | 1016.3 |
| 20260902011127 | 85 | 163 | 2.0 | 4.0 | 0.00 | 0.00 | 0.00 | 65 | 1016.3 |
| 20260902011027 | 85 | 203 | 1.0 | 4.0 | 0.00 | 0.00 | 0.00 | 65 | 1016.3 |
| 20260902010927 | 85 | 193 | 2.0 | 4.0 | 0.00 | 0.00 | 0.00 | 65 | 1016.3 |
| 20260902010827 | 85 | 190 | 3.0 | 4.0 | 0.00 | 0.00 | 0.00 | 65 | 1016.3 |
| 20260902010727 | 85 | 186 | 2.0 | 4.0 | 0.00 | 0.00 | 0.00 | 65 | 1016.3 |
| 20260902010627 | 85 | 179 | 2.0 | 4.0 | 0.00 | 0.00 | 0.00 | 65 | 1016.3 |
| 20260902010527 | 85 | 180 | 2.0 | 4.0 | 0.00 | 0.00 | 0.00 | 65 | 1016.3 |
| 20260902010427 | 85 | 180 | 2.0 | 4.0 | 0.00 | 0.00 | 0.00 | 65 | 1016.3 |
| 20260902010327 | 85 | 180 | 2.0 | 4.0 | 0.00 | 0.00 | 0.00 | 64 | 1016.3 |
| 20260902010227 | 85 | 170 | 1.0 | 4.0 | 0.00 | 0.00 | 0.00 | 64 | 1016.3 |
| 20260902010127 | 85 | 180 | 1.0 | 4.0 | 0.00 | 0.00 | 0.00 | 64 | 1016.3 |
| 20260902010027 | 85 | 180 | 1.0 | 6.0 | 0.00 | 0.00 | 0.00 | 64 | 1016.3 |
| 20260902005927 | 85 | 173 | 2.0 | 6.0 | 0.00 | 0.00 | 0.00 | 64 | 1016.3 |
| 20260902005827 | 85 | 180 | 1.0 | 6.0 | 0.00 | 0.00 | 0.00 | 64 | 1016.3 |
| 20260902005727 | 85 | 190 | 2.0 | 6.0 | 0.00 | 0.00 | 0.00 | 64 | 1016.3 |
| 20260902005627 | 85 | 180 | 2.0 | 6.0 | 0.00 | 0.00 | 0.00 | 64 | 1016.3 |
| 20260902005527 | 85 | 180 | 2.0 | 6.0 | 0.00 | 0.00 | 0.00 | 64 | 1016.3 |
| 20260902005427 | 85 | 177 | 3.0 | 6.0 | 0.00 | 0.00 | 0.00 | 64 | 1016.3 |
| 20260902005327 | 85 | 181 | 3.0 | 6.0 | 0.00 | 0.00 | 0.00 | 64 | 1016.3 |
| 20260902005227 | 86 | 180 | 3.0 | 6.0 | 0.00 | 0.00 | 0.00 | 64 | 1016.3 |
| 20260902005127 | 85 | 193 | 5.0 | 6.0 | 0.00 | 0.00 | 0.00 | 64 | 1016.3 |
| 20260902005027 | 86 | 203 | 4.0 | 6.0 | 0.00 | 0.00 | 0.00 | 63 | 1016.3 |
| 20260902004927 | 86 | 183 | 3.0 | 6.0 | 0.00 | 0.00 | 0.00 | 63 | 1016.3 |
| 20260902004827 | 86 | 207 | 3.0 | 6.0 | 0.00 | 0.00 | 0.00 | 63 | 1016.3 |
| 20260902004727 | 86 | 195 | 4.0 | 6.0 | 0.00 | 0.00 | 0.00 | 63 | 1016.3 |
| 20260902004627 | 86 | 219 | 4.0 | 6.0 | 0.00 | 0.00 | 0.00 | 63 | 1016.3 |
| 20260902004527 | 86 | 193 | 3.0 | 6.0 | 0.00 | 0.00 | 0.00 | 63 | 1016.3 |
| 20260902004427 | 86 | 201 | 3.0 | 6.0 | 0.00 | 0.00 | 0.00 | 63 | 1016.3 |
| 20260902004327 | 86 | 193 | 3.0 | 6.0 | 0.00 | 0.00 | 0.00 | 63 | 1016.3 |
| 20260902004227 | 86 | 195 | 3.0 | 6.0 | 0.00 | 0.00 | 0.00 | 63 | 1016.3 |
| 20260902004127 | 86 | 188 | 3.0 | 6.0 | 0.00 | 0.00 | 0.00 | 63 | 1016.3 |
| 20260902004027 | 86 | 181 | 4.0 | 6.0 | 0.00 | 0.00 | 0.00 | 63 | 1016.3 |
| 20260902003927 | 86 | 191 | 2.0 | 6.0 | 0.00 | 0.00 | 0.00 | 62 | 1016.3 |
| 20260902003827 | 86 | 194 | 2.0 | 6.0 | 0.00 | 0.00 | 0.00 | 62 | 1016.3 |
| 20260902003727 | 86 | 197 | 3.0 | 6.0 | 0.00 | 0.00 | 0.00 | 62 | 1016.3 |
| 20260902003627 | 86 | 194 | 4.0 | 6.0 | 0.00 | 0.00 | 0.00 | 62 | 1016.3 |
| 20260902003527 | 86 | 184 | 3.0 | 6.0 | 0.00 | 0.00 | 0.00 | 62 | 1016.3 |
| 20260902003427 | 86 | 181 | 3.0 | 6.0 | 0.00 | 0.00 | 0.00 | 62 | 1016.3 |
| 20260902003327 | 86 | 173 | 2.0 | 6.0 | 0.00 | 0.00 | 0.00 | 62 | 1016.3 |
| 20260902003227 | 86 | 203 | 3.0 | 6.0 | 0.00 | 0.00 | 0.00 | 62 | 1016.3 |
| 20260902003127 | 86 | 195 | 2.0 | 6.0 | 0.00 | 0.00 | 0.00 | 62 | 1016.3 |
| 20260902003027 | 86 | 195 | 3.0 | 6.0 | 0.00 | 0.00 | 0.00 | 62 | 1016.3 |
| 20260902002927 | 86 | 170 | 3.0 | 6.0 | 0.00 | 0.00 | 0.00 | 62 | 1016.3 |
| 20260902002827 | 86 | 194 | 2.0 | 6.0 | 0.00 | 0.00 | 0.00 | 62 | 1016.3 |
| 20260902002727 | 86 | 179 | 4.0 | 6.0 | 0.00 | 0.00 | 0.00 | 62 | 1016.3 |
| 20260902002627 | 87 | 208 | 3.0 | 6.0 | 0.00 | 0.00 | 0.00 | 62 | 1016.3 |
| 20260902002527 | 87 | 173 | 3.0 | 5.0 | 0.00 | 0.00 | 0.00 | 61 | 1016.3 |
| 20260902002427 | 87 | 142 | 4.0 | 5.0 | 0.00 | 0.00 | 0.00 | 61 | 1016.3 |
| 20260902002327 | 87 | 165 | 3.0 | 5.0 | 0.00 | 0.00 | 0.00 | 61 | 1016.3 |
| 20260902002227 | 87 | 179 | 3.0 | 5.0 | 0.00 | 0.00 | 0.00 | 61 | 1016.3 |
| 20260902002127 | 87 | 195 | 4.0 | 5.0 | 0.00 | 0.00 | 0.00 | 61 | 1016.3 |
| 20260902002027 | 87 | 191 | 2.0 | 5.0 | 0.00 | 0.00 | 0.00 | 61 | 1016.3 |
| 20260902001927 | 87 | 190 | 2.0 | 5.0 | 0.00 | 0.00 | 0.00 | 61 | 1016.3 |